GEFSGL_prec_meanprecacc_006.txt.gz
Total_Precipitation_Accumulation
0.00 0.00 0.00 0.00 0.00 0.00 0.01 0.01 0.02 0.01 0.01 0.00 0.00 0.00 0.00 0.00 0.00 0.00 0.00 0.00 0.00 0.00 0.00 0.00 0.00 0.00 0.00 0.00 0.00 0.01 0.01 0.00 0.00 0.00 0.00 0.00 0.00 0.00 0.00 0.00 0.00 0.00 0.00
0.00 0.00 0.00 0.00 0.00 0.01 0.03 0.05 0.04 0.03 0.01 0.01 0.01 0.00 0.00 0.00 0.00 0.00 0.00 0.00 0.00 0.00 0.00 0.00 0.00 0.00 0.00 0.00 0.01 0.01 0.01 0.02 0.02 0.01 0.00 0.00 0.00 0.00 0.00 0.00 0.00 0.00 0.00
0.00 0.00 0.00 0.00 0.00 0.02 0.04 0.07 0.09 0.09 0.07 0.05 0.03 0.01 0.01 0.01 0.00 0.00 0.00 0.00 0.00 0.00 0.00 0.00 0.00 0.00 0.00 0.00 0.00 0.01 0.01 0.02 0.03 0.03 0.02 0.02 0.02 0.01 0.00 0.00 0.00 0.00 0.00
0.00 0.00 0.00 0.01 0.02 0.04 0.06 0.10 0.14 0.17 0.18 0.15 0.09 0.05 0.02 0.01 0.00 0.00 0.00 0.00 0.00 0.00 0.00 0.00 0.00 0.00 0.00 0.00 0.00 0.00 0.00 0.01 0.01 0.02 0.02 0.03 0.03 0.02 0.01 0.00 0.00 0.00 0.00
0.01 0.01 0.02 0.04 0.09 0.14 0.15 0.17 0.20 0.23 0.23 0.20 0.15 0.09 0.05 0.02 0.01 0.00 0.00 0.00 0.00 0.00 0.00 0.00 0.01 0.01 0.02 0.01 0.00 0.00 0.00 0.00 0.00 0.01 0.01 0.01 0.01 0.00 0.00 0.00 0.00 0.00 0.00
0.02 0.02 0.05 0.10 0.16 0.22 0.24 0.26 0.30 0.30 0.26 0.21 0.16 0.11 0.06 0.02 0.01 0.00 0.00 0.00 0.00 0.00 0.00 0.00 0.00 0.01 0.01 0.02 0.01 0.01 0.00 0.00 0.00 0.01 0.01 0.01 0.01 0.01 0.01 0.00 0.00 0.00 0.00
0.03 0.06 0.09 0.12 0.14 0.17 0.20 0.23 0.25 0.21 0.14 0.11 0.11 0.08 0.04 0.02 0.01 0.00 0.00 0.00 0.00 0.00 0.00 0.00 0.00 0.00 0.00 0.00 0.00 0.00 0.00 0.00 0.00 0.00 0.01 0.01 0.01 0.01 0.00 0.00 0.00 0.00 0.00
0.04 0.07 0.09 0.12 0.13 0.11 0.11 0.13 0.14 0.10 0.07 0.07 0.06 0.03 0.01 0.00 0.00 0.00 0.00 0.00 0.00 0.00 0.00 0.00 0.00 0.00 0.00 0.00 0.00 0.00 0.00 0.00 0.00 0.00 0.00 0.00 0.00 0.00 0.00 0.00 0.00 0.00 0.00
0.04 0.05 0.07 0.10 0.13 0.10 0.08 0.08 0.09 0.07 0.05 0.04 0.02 0.01 0.00 0.00 0.00 0.00 0.00 0.00 0.00 0.00 0.00 0.00 0.00 0.00 0.00 0.00 0.00 0.00 0.00 0.00 0.00 0.00 0.00 0.00 0.00 0.00 0.00 0.00 0.00 0.00 0.00
0.02 0.03 0.03 0.04 0.06 0.04 0.02 0.02 0.02 0.02 0.01 0.01 0.00 0.00 0.00 0.00 0.00 0.00 0.00 0.00 0.00 0.00 0.00 0.00 0.00 0.00 0.00 0.00 0.00 0.00 0.00 0.00 0.00 0.00 0.00 0.00 0.00 0.00 0.00 0.00 0.00 0.00 0.00
0.00 0.00 0.00 0.00 0.00 0.00 0.00 0.00 0.00 0.01 0.01 0.01 0.00 0.00 0.00 0.00 0.00 0.00 0.00 0.00 0.00 0.00 0.00 0.00 0.00 0.00 0.00 0.00 0.00 0.00 0.00 0.00 0.00 0.00 0.00 0.00 0.00 0.00 0.00 0.00 0.00 0.00 0.00
0.00 0.00 0.00 0.00 0.00 0.00 0.00 0.00 0.00 0.00 0.00 0.00 0.00 0.00 0.00 0.00 0.00 0.00 0.00 0.00 0.00 0.00 0.00 0.00 0.00 0.00 0.00 0.00 0.00 0.00 0.00 0.00 0.00 0.00 0.00 0.00 0.00 0.00 0.00 0.00 0.00 0.00 0.00
0.00 0.00 0.00 0.00 0.00 0.00 0.00 0.00 0.00 0.00 0.00 0.00 0.00 0.00 0.00 0.00 0.00 0.00 0.00 0.00 0.00 0.00 0.00 0.00 0.00 0.00 0.00 0.00 0.00 0.00 0.00 0.00 0.00 0.00 0.00 0.00 0.00 0.00 0.00 0.00 0.00 0.00 0.00
0.00 0.00 0.00 0.00 0.00 0.00 0.00 0.00 0.00 0.00 0.00 0.00 0.00 0.00 0.00 0.00 0.00 0.00 0.00 0.01 0.01 0.01 0.00 0.00 0.00 0.00 0.00 0.00 0.00 0.00 0.00 0.00 0.00 0.00 0.00 0.00 0.00 0.00 0.00 0.00 0.00 0.00 0.00
0.00 0.00 0.00 0.00 0.00 0.00 0.00 0.00 0.00 0.00 0.00 0.00 0.00 0.00 0.00 0.00 0.01 0.01 0.02 0.03 0.03 0.02 0.00 0.00 0.00 0.00 0.00 0.00 0.00 0.00 0.00 0.00 0.00 0.00 0.00 0.00 0.00 0.00 0.00 0.00 0.00 0.00 0.00
0.00 0.00 0.00 0.00 0.00 0.00 0.00 0.00 0.00 0.00 0.00 0.00 0.00 0.01 0.00 0.01 0.01 0.02 0.03 0.03 0.01 0.00 0.00 0.00 0.00 0.00 0.00 0.00 0.00 0.00 0.00 0.00 0.00 0.00 0.00 0.00 0.00 0.00 0.00 0.00 0.00 0.00 0.00
0.00 0.00 0.00 0.00 0.00 0.00 0.00 0.00 0.00 0.00 0.00 0.00 0.00 0.00 0.01 0.01 0.01 0.01 0.03 0.02 0.00 0.00 0.00 0.00 0.00 0.00 0.00 0.00 0.00 0.00 0.00 0.00 0.00 0.00 0.00 0.00 0.00 0.00 0.00 0.00 0.00 0.00 0.00
0.00 0.00 0.00 0.00 0.00 0.00 0.00 0.00 0.00 0.00 0.00 0.00 0.00 0.00 0.00 0.01 0.01 0.01 0.03 0.03 0.01 0.00 0.00 0.00 0.00 0.00 0.00 0.00 0.00 0.00 0.00 0.00 0.00 0.00 0.00 0.00 0.00 0.00 0.00 0.00 0.00 0.00 0.00
0.00 0.00 0.00 0.00 0.00 0.00 0.00 0.00 0.00 0.00 0.00 0.00 0.00 0.00 0.00 0.00 0.00 0.01 0.01 0.01 0.00 0.00 0.00 0.00 0.00 0.00 0.00 0.00 0.00 0.00 0.00 0.00 0.00 0.00 0.00 0.00 0.00 0.00 0.00 0.00 0.00 0.00 0.00
0.00 0.00 0.00 0.00 0.00 0.00 0.00 0.00 0.00 0.00 0.00 0.00 0.00 0.00 0.00 0.00 0.00 0.00 0.00 0.00 0.00 0.00 0.00 0.00 0.00 0.00 0.00 0.00 0.00 0.00 0.00 0.00 0.00 0.00 0.00 0.00 0.00 0.00 0.00 0.00 0.00 0.00 0.00
0.00 0.00 0.00 0.00 0.00 0.00 0.00 0.00 0.00 0.00 0.00 0.00 0.00 0.00 0.01 0.00 0.00 0.00 0.00 0.00 0.00 0.00 0.00 0.00 0.00 0.00 0.00 0.00 0.00 0.00 0.00 0.00 0.00 0.00 0.00 0.00 0.00 0.00 0.00 0.00 0.00 0.00 0.00
0.00 0.00 0.00 0.00 0.00 0.00 0.00 0.00 0.00 0.00 0.00 0.00 0.00 0.00 0.00 0.00 0.00 0.00 0.00 0.00 0.00 0.00 0.00 0.00 0.00 0.00 0.00 0.00 0.00 0.00 0.00 0.00 0.00 0.00 0.00 0.00 0.00 0.00 0.00 0.00 0.00 0.00 0.01
0.00 0.00 0.00 0.00 0.00 0.00 0.00 0.00 0.00 0.00 0.00 0.00 0.00 0.00 0.00 0.00 0.00 0.00 0.00 0.00 0.00 0.00 0.00 0.00 0.00 0.00 0.00 0.00 0.00 0.00 0.00 0.00 0.00 0.00 0.00 0.00 0.00 0.00 0.00 0.00 0.00 0.01 0.01
0.00 0.00 0.00 0.00 0.00 0.00 0.00 0.00 0.00 0.00 0.00 0.00 0.00 0.00 0.00 0.00 0.00 0.00 0.00 0.00 0.00 0.00 0.00 0.00 0.00 0.00 0.00 0.00 0.00 0.00 0.00 0.00 0.00 0.00 0.00 0.00 0.00 0.00 0.01 0.01 0.01 0.01 0.01
0.00 0.00 0.00 0.00 0.00 0.00 0.00 0.00 0.00 0.00 0.00 0.00 0.00 0.00 0.00 0.00 0.00 0.00 0.00 0.00 0.00 0.00 0.00 0.00 0.00 0.00 0.00 0.00 0.00 0.00 0.00 0.00 0.01 0.02 0.05 0.07 0.07 0.05 0.04 0.03 0.02 0.02 0.02
0.00 0.00 0.00 0.00 0.00 0.00 0.00 0.00 0.00 0.00 0.00 0.00 0.00 0.00 0.00 0.00 0.00 0.00 0.00 0.00 0.00 0.00 0.00 0.00 0.00 0.00 0.00 0.00 0.00 0.00 0.01 0.02 0.06 0.10 0.12 0.10 0.06 0.04 0.02 0.02 0.02 0.02 0.02

GEFSGL_prec_meanprecacc_012.txt.gz
Total_Precipitation_Accumulation
0.00 0.00 0.00 0.00 0.00 0.00 0.01 0.02 0.02 0.02 0.02 0.03 0.04 0.05 0.06 0.07 0.07 0.05 0.03 0.01 0.00 0.00 0.00 0.00 0.00 0.00 0.00 0.00 0.00 0.01 0.01 0.01 0.00 0.00 0.00 0.00 0.00 0.00 0.00 0.00 0.00 0.00 0.00
0.00 0.00 0.00 0.00 0.01 0.01 0.03 0.05 0.06 0.05 0.06 0.07 0.07 0.07 0.08 0.07 0.06 0.05 0.04 0.04 0.02 0.01 0.01 0.01 0.01 0.00 0.00 0.00 0.01 0.01 0.01 0.02 0.02 0.01 0.00 0.00 0.00 0.00 0.00 0.00 0.00 0.00 0.00
0.00 0.00 0.00 0.00 0.01 0.03 0.05 0.10 0.14 0.18 0.20 0.20 0.19 0.17 0.15 0.13 0.10 0.08 0.06 0.05 0.04 0.04 0.03 0.03 0.02 0.01 0.01 0.00 0.00 0.01 0.01 0.02 0.03 0.03 0.02 0.02 0.02 0.01 0.00 0.00 0.00 0.00 0.00
0.00 0.00 0.00 0.01 0.04 0.06 0.09 0.15 0.24 0.33 0.39 0.42 0.42 0.38 0.32 0.26 0.20 0.17 0.14 0.12 0.09 0.08 0.07 0.06 0.05 0.02 0.01 0.00 0.00 0.00 0.00 0.01 0.01 0.02 0.03 0.04 0.05 0.03 0.02 0.02 0.01 0.00 0.00
0.01 0.01 0.02 0.05 0.10 0.17 0.19 0.23 0.30 0.39 0.45 0.47 0.46 0.44 0.39 0.35 0.30 0.25 0.22 0.20 0.18 0.15 0.12 0.10 0.07 0.06 0.05 0.02 0.01 0.00 0.00 0.00 0.00 0.01 0.02 0.02 0.02 0.03 0.04 0.04 0.04 0.02 0.02
0.02 0.03 0.06 0.11 0.18 0.25 0.29 0.32 0.38 0.44 0.45 0.44 0.42 0.40 0.36 0.30 0.24 0.20 0.17 0.16 0.16 0.14 0.12 0.08 0.06 0.05 0.04 0.03 0.02 0.01 0.01 0.01 0.01 0.01 0.01 0.01 0.01 0.02 0.03 0.04 0.05 0.05 0.05
0.04 0.06 0.10 0.13 0.17 0.20 0.22 0.27 0.32 0.29 0.25 0.26 0.31 0.29 0.25 0.20 0.17 0.12 0.07 0.05 0.04 0.04 0.03 0.03 0.03 0.02 0.01 0.01 0.00 0.00 0.00 0.00 0.01 0.01 0.02 0.03 0.02 0.01 0.01 0.02 0.03 0.05 0.06
0.04 0.07 0.10 0.12 0.15 0.14 0.13 0.16 0.19 0.15 0.14 0.16 0.17 0.14 0.10 0.07 0.07 0.03 0.01 0.01 0.00 0.00 0.00 0.00 0.00 0.00 0.00 0.00 0.00 0.00 0.00 0.00 0.00 0.00 0.01 0.01 0.01 0.01 0.01 0.01 0.02 0.02 0.02
0.04 0.05 0.07 0.10 0.13 0.11 0.09 0.09 0.12 0.12 0.11 0.10 0.08 0.05 0.02 0.02 0.04 0.02 0.00 0.00 0.00 0.00 0.00 0.00 0.00 0.00 0.00 0.00 0.00 0.00 0.00 0.00 0.00 0.00 0.00 0.00 0.00 0.00 0.00 0.00 0.01 0.01 0.01
0.02 0.03 0.03 0.04 0.06 0.04 0.02 0.02 0.03 0.04 0.04 0.03 0.02 0.01 0.00 0.00 0.02 0.02 0.00 0.00 0.00 0.00 0.00 0.00 0.00 0.00 0.00 0.00 0.00 0.00 0.00 0.00 0.00 0.00 0.00 0.00 0.00 0.00 0.00 0.00 0.00 0.00 0.00
0.00 0.00 0.00 0.00 0.00 0.00 0.00 0.00 0.00 0.01 0.01 0.01 0.00 0.00 0.00 0.00 0.00 0.02 0.02 0.00 0.00 0.00 0.00 0.00 0.00 0.00 0.00 0.00 0.00 0.00 0.00 0.00 0.00 0.00 0.00 0.00 0.00 0.00 0.00 0.00 0.00 0.00 0.00
0.00 0.00 0.00 0.00 0.00 0.00 0.00 0.00 0.00 0.00 0.00 0.00 0.00 0.00 0.00 0.00 0.00 0.02 0.04 0.04 0.02 0.00 0.00 0.00 0.00 0.00 0.00 0.00 0.00 0.00 0.00 0.00 0.00 0.00 0.00 0.00 0.00 0.00 0.00 0.00 0.00 0.00 0.00
0.00 0.00 0.00 0.00 0.00 0.00 0.00 0.00 0.00 0.00 0.00 0.00 0.00 0.00 0.00 0.00 0.00 0.01 0.01 0.02 0.03 0.02 0.00 0.00 0.00 0.00 0.00 0.00 0.00 0.00 0.00 0.00 0.00 0.00 0.00 0.00 0.00 0.00 0.00 0.00 0.00 0.00 0.00
0.00 0.00 0.00 0.00 0.00 0.00 0.00 0.00 0.00 0.00 0.02 0.03 0.01 0.00 0.00 0.00 0.00 0.01 0.01 0.01 0.02 0.03 0.03 0.01 0.00 0.00 0.00 0.00 0.00 0.00 0.00 0.00 0.00 0.00 0.00 0.00 0.00 0.00 0.00 0.00 0.00 0.00 0.00
0.00 0.00 0.00 0.00 0.00 0.00 0.00 0.00 0.00 0.00 0.04 0.05 0.03 0.03 0.01 0.01 0.02 0.05 0.06 0.06 0.04 0.03 0.02 0.01 0.00 0.00 0.00 0.00 0.00 0.00 0.00 0.00 0.00 0.00 0.00 0.00 0.00 0.00 0.00 0.00 0.00 0.00 0.00
0.00 0.00 0.00 0.00 0.00 0.00 0.00 0.00 0.00 0.00 0.01 0.01 0.02 0.03 0.02 0.03 0.05 0.05 0.06 0.07 0.03 0.02 0.01 0.00 0.00 0.00 0.00 0.00 0.00 0.00 0.00 0.00 0.00 0.00 0.00 0.00 0.00 0.00 0.00 0.00 0.00 0.00 0.00
0.00 0.00 0.00 0.00 0.00 0.00 0.00 0.00 0.00 0.00 0.00 0.00 0.00 0.01 0.02 0.03 0.03 0.04 0.07 0.07 0.05 0.02 0.00 0.00 0.00 0.00 0.00 0.00 0.00 0.00 0.00 0.00 0.00 0.00 0.00 0.00 0.00 0.00 0.00 0.00 0.00 0.00 0.00
0.00 0.00 0.00 0.00 0.00 0.00 0.00 0.00 0.00 0.00 0.00 0.00 0.00 0.00 0.01 0.02 0.02 0.02 0.05 0.05 0.02 0.01 0.00 0.00 0.00 0.00 0.00 0.00 0.00 0.00 0.00 0.00 0.00 0.00 0.00 0.00 0.00 0.00 0.00 0.00 0.00 0.00 0.00
0.00 0.00 0.00 0.00 0.00 0.00 0.00 0.00 0.00 0.00 0.00 0.00 0.00 0.00 0.00 0.01 0.00 0.01 0.01 0.01 0.00 0.00 0.00 0.00 0.00 0.00 0.00 0.00 0.00 0.00 0.00 0.00 0.00 0.00 0.00 0.00 0.00 0.00 0.00 0.00 0.00 0.00 0.00
0.00 0.00 0.01 0.00 0.00 0.00 0.00 0.00 0.00 0.00 0.00 0.00 0.00 0.00 0.00 0.00 0.00 0.00 0.00 0.00 0.00 0.00 0.00 0.00 0.00 0.00 0.00 0.00 0.00 0.00 0.00 0.00 0.00 0.00 0.00 0.00 0.00 0.00 0.00 0.00 0.00 0.00 0.00
0.00 0.00 0.00 0.00 0.00 0.00 0.00 0.00 0.00 0.00 0.00 0.00 0.00 0.00 0.02 0.01 0.00 0.00 0.00 0.00 0.00 0.00 0.00 0.00 0.00 0.00 0.00 0.00 0.00 0.00 0.00 0.00 0.00 0.00 0.00 0.00 0.00 0.00 0.00 0.00 0.00 0.00 0.00
0.00 0.01 0.01 0.01 0.01 0.01 0.01 0.00 0.00 0.00 0.00 0.00 0.00 0.00 0.00 0.00 0.00 0.00 0.00 0.00 0.00 0.00 0.00 0.00 0.00 0.00 0.00 0.00 0.00 0.00 0.00 0.00 0.00 0.00 0.00 0.00 0.00 0.00 0.00 0.00 0.00 0.00 0.01
0.02 0.03 0.02 0.01 0.01 0.01 0.00 0.00 0.00 0.00 0.00 0.00 0.00 0.00 0.00 0.00 0.00 0.00 0.00 0.00 0.00 0.00 0.00 0.00 0.00 0.00 0.00 0.00 0.00 0.00 0.00 0.00 0.00 0.00 0.00 0.00 0.00 0.00 0.00 0.00 0.00 0.01 0.01
0.04 0.02 0.01 0.01 0.00 0.01 0.01 0.01 0.01 0.01 0.01 0.01 0.00 0.00 0.00 0.00 0.00 0.00 0.00 0.00 0.00 0.00 0.00 0.00 0.00 0.00 0.00 0.00 0.00 0.00 0.00 0.00 0.00 0.00 0.00 0.00 0.00 0.00 0.01 0.01 0.01 0.01 0.01
0.01 0.01 0.01 0.01 0.01 0.01 0.01 0.01 0.02 0.02 0.02 0.01 0.01 0.00 0.00 0.00 0.00 0.00 0.00 0.00 0.00 0.00 0.00 0.00 0.00 0.00 0.00 0.00 0.00 0.00 0.00 0.00 0.01 0.03 0.08 0.12 0.11 0.08 0.05 0.04 0.03 0.02 0.02
0.01 0.01 0.01 0.01 0.02 0.02 0.04 0.04 0.04 0.04 0.04 0.03 0.02 0.01 0.00 0.00 0.00 0.00 0.00 0.00 0.00 0.00 0.00 0.00 0.00 0.00 0.00 0.00 0.00 0.00 0.01 0.03 0.09 0.17 0.22 0.19 0.11 0.06 0.04 0.03 0.03 0.03 0.03

GEFSGL_prec_meanprecacc_018.txt.gz
Total_Precipitation_Accumulation
0.00 0.00 0.00 0.00 0.00 0.01 0.02 0.02 0.03 0.03 0.03 0.04 0.05 0.07 0.09 0.11 0.14 0.16 0.16 0.16 0.14 0.13 0.11 0.11 0.11 0.11 0.09 0.06 0.03 0.02 0.01 0.01 0.00 0.00 0.00 0.00 0.00 0.00 0.00 0.00 0.00 0.00 0.00
0.00 0.00 0.00 0.00 0.01 0.02 0.04 0.06 0.06 0.06 0.07 0.08 0.11 0.12 0.13 0.14 0.16 0.20 0.23 0.24 0.24 0.21 0.17 0.13 0.11 0.10 0.10 0.07 0.04 0.03 0.02 0.02 0.02 0.01 0.00 0.00 0.00 0.00 0.00 0.00 0.00 0.00 0.00
0.00 0.00 0.00 0.00 0.01 0.03 0.06 0.10 0.15 0.18 0.21 0.22 0.24 0.25 0.26 0.26 0.26 0.28 0.32 0.38 0.40 0.36 0.28 0.21 0.14 0.09 0.08 0.06 0.05 0.03 0.02 0.02 0.03 0.03 0.02 0.02 0.02 0.01 0.01 0.00 0.00 0.00 0.01
0.00 0.00 0.00 0.01 0.04 0.06 0.09 0.15 0.24 0.33 0.40 0.45 0.48 0.48 0.46 0.45 0.44 0.45 0.47 0.49 0.51 0.48 0.40 0.30 0.21 0.13 0.08 0.06 0.04 0.04 0.03 0.02 0.02 0.03 0.04 0.04 0.05 0.03 0.03 0.02 0.02 0.01 0.01
0.01 0.01 0.02 0.05 0.10 0.17 0.19 0.23 0.30 0.39 0.47 0.50 0.51 0.50 0.48 0.50 0.50 0.44 0.43 0.44 0.45 0.44 0.39 0.33 0.28 0.24 0.19 0.12 0.06 0.04 0.03 0.03 0.03 0.04 0.03 0.03 0.03 0.04 0.06 0.06 0.07 0.04 0.03
0.02 0.03 0.06 0.11 0.18 0.25 0.29 0.32 0.39 0.44 0.47 0.46 0.46 0.44 0.40 0.39 0.41 0.32 0.26 0.26 0.29 0.32 0.33 0.29 0.25 0.22 0.20 0.16 0.11 0.07 0.05 0.04 0.05 0.05 0.04 0.04 0.03 0.03 0.05 0.08 0.11 0.11 0.09
0.04 0.06 0.10 0.13 0.17 0.20 0.22 0.27 0.32 0.30 0.26 0.28 0.33 0.31 0.27 0.26 0.30 0.19 0.10 0.08 0.10 0.13 0.15 0.17 0.15 0.13 0.11 0.10 0.08 0.06 0.05 0.05 0.05 0.06 0.08 0.07 0.05 0.03 0.03 0.05 0.09 0.13 0.14
0.04 0.07 0.10 0.12 0.15 0.14 0.13 0.16 0.19 0.15 0.15 0.17 0.19 0.15 0.11 0.11 0.19 0.10 0.02 0.02 0.03 0.04 0.06 0.07 0.07 0.07 0.05 0.05 0.04 0.03 0.03 0.04 0.04 0.06 0.09 0.10 0.09 0.07 0.05 0.07 0.09 0.12 0.15
0.04 0.05 0.07 0.10 0.13 0.11 0.09 0.09 0.12 0.12 0.11 0.10 0.09 0.05 0.03 0.03 0.12 0.12 0.03 0.00 0.01 0.01 0.01 0.02 0.02 0.03 0.03 0.02 0.03 0.03 0.03 0.04 0.04 0.05 0.07 0.09 0.10 0.09 0.08 0.08 0.10 0.12 0.14
0.02 0.03 0.03 0.04 0.06 0.04 0.02 0.02 0.03 0.04 0.04 0.03 0.02 0.01 0.00 0.00 0.05 0.14 0.09 0.01 0.00 0.00 0.00 0.00 0.01 0.02 0.02 0.01 0.02 0.03 0.03 0.03 0.01 0.01 0.01 0.02 0.03 0.04 0.05 0.07 0.10 0.10 0.10
0.00 0.00 0.00 0.00 0.00 0.00 0.00 0.00 0.00 0.01 0.01 0.01 0.00 0.00 0.00 0.00 0.01 0.08 0.16 0.07 0.01 0.01 0.00 0.00 0.01 0.02 0.02 0.02 0.01 0.01 0.02 0.01 0.01 0.00 0.00 0.00 0.00 0.01 0.01 0.02 0.03 0.04 0.04
0.00 0.00 0.00 0.00 0.00 0.00 0.00 0.00 0.00 0.00 0.00 0.00 0.00 0.00 0.00 0.00 0.00 0.04 0.10 0.15 0.08 0.01 0.01 0.00 0.01 0.02 0.02 0.01 0.01 0.01 0.00 0.00 0.00 0.00 0.00 0.00 0.00 0.00 0.00 0.00 0.00 0.00 0.00
0.00 0.00 0.00 0.00 0.00 0.00 0.00 0.00 0.00 0.00 0.01 0.01 0.00 0.00 0.00 0.00 0.00 0.02 0.03 0.04 0.06 0.03 0.02 0.04 0.01 0.00 0.00 0.00 0.00 0.00 0.00 0.00 0.00 0.00 0.00 0.00 0.00 0.00 0.00 0.00 0.00 0.00 0.00
0.00 0.00 0.00 0.00 0.00 0.00 0.00 0.00 0.00 0.00 0.03 0.04 0.01 0.01 0.00 0.00 0.01 0.04 0.03 0.01 0.02 0.04 0.05 0.05 0.01 0.00 0.00 0.00 0.00 0.00 0.00 0.00 0.00 0.00 0.00 0.00 0.00 0.00 0.00 0.00 0.00 0.00 0.00
0.00 0.00 0.00 0.00 0.00 0.00 0.00 0.00 0.00 0.00 0.04 0.06 0.03 0.04 0.02 0.02 0.06 0.11 0.10 0.09 0.07 0.06 0.03 0.02 0.01 0.00 0.00 0.00 0.00 0.00 0.00 0.00 0.00 0.00 0.00 0.00 0.00 0.00 0.00 0.00 0.00 0.00 0.00
0.00 0.00 0.00 0.00 0.00 0.00 0.00 0.00 0.00 0.00 0.01 0.02 0.02 0.04 0.04 0.07 0.09 0.08 0.09 0.11 0.10 0.07 0.02 0.01 0.00 0.00 0.00 0.00 0.00 0.00 0.00 0.00 0.00 0.00 0.00 0.00 0.00 0.00 0.00 0.00 0.00 0.00 0.00
0.00 0.00 0.01 0.00 0.00 0.00 0.00 0.01 0.00 0.00 0.00 0.00 0.00 0.01 0.03 0.06 0.05 0.05 0.08 0.08 0.07 0.04 0.01 0.00 0.00 0.00 0.00 0.00 0.00 0.00 0.00 0.00 0.00 0.00 0.00 0.00 0.00 0.00 0.00 0.00 0.00 0.00 0.00
0.00 0.00 0.01 0.01 0.01 0.01 0.02 0.01 0.01 0.01 0.00 0.00 0.00 0.00 0.02 0.03 0.03 0.03 0.06 0.05 0.02 0.01 0.01 0.00 0.00 0.00 0.00 0.00 0.00 0.00 0.00 0.00 0.00 0.00 0.00 0.00 0.00 0.00 0.00 0.00 0.00 0.00 0.00
0.00 0.01 0.02 0.02 0.02 0.02 0.02 0.02 0.02 0.01 0.01 0.00 0.00 0.00 0.00 0.01 0.01 0.01 0.01 0.01 0.00 0.00 0.00 0.00 0.00 0.00 0.00 0.00 0.00 0.00 0.00 0.00 0.00 0.00 0.00 0.00 0.00 0.00 0.00 0.00 0.00 0.00 0.00
0.00 0.01 0.02 0.03 0.02 0.02 0.02 0.02 0.02 0.01 0.01 0.01 0.00 0.00 0.00 0.00 0.00 0.00 0.00 0.00 0.00 0.00 0.00 0.00 0.00 0.00 0.00 0.00 0.00 0.00 0.00 0.00 0.00 0.00 0.00 0.00 0.00 0.00 0.00 0.00 0.00 0.00 0.00
0.01 0.01 0.01 0.02 0.02 0.02 0.03 0.03 0.02 0.02 0.02 0.01 0.00 0.00 0.03 0.02 0.00 0.00 0.00 0.00 0.00 0.00 0.00 0.00 0.00 0.00 0.00 0.00 0.00 0.00 0.00 0.00 0.00 0.00 0.00 0.00 0.00 0.00 0.00 0.00 0.00 0.00 0.00
0.02 0.03 0.03 0.03 0.03 0.03 0.04 0.04 0.04 0.03 0.02 0.02 0.01 0.00 0.01 0.01 0.00 0.00 0.00 0.00 0.00 0.00 0.00 0.00 0.00 0.00 0.00 0.00 0.00 0.00 0.00 0.00 0.00 0.00 0.00 0.00 0.00 0.00 0.00 0.00 0.00 0.00 0.01
0.05 0.05 0.03 0.02 0.02 0.02 0.02 0.02 0.03 0.03 0.02 0.02 0.01 0.01 0.00 0.00 0.00 0.00 0.00 0.00 0.00 0.00 0.00 0.00 0.00 0.00 0.00 0.00 0.00 0.00 0.00 0.00 0.00 0.00 0.00 0.00 0.00 0.00 0.00 0.00 0.00 0.01 0.01
0.05 0.03 0.02 0.01 0.01 0.01 0.02 0.02 0.03 0.03 0.03 0.03 0.02 0.01 0.01 0.00 0.00 0.00 0.00 0.00 0.00 0.00 0.00 0.00 0.00 0.00 0.00 0.00 0.00 0.00 0.00 0.00 0.00 0.00 0.00 0.00 0.00 0.00 0.01 0.01 0.01 0.01 0.01
0.01 0.01 0.01 0.02 0.02 0.03 0.03 0.03 0.03 0.04 0.04 0.04 0.03 0.02 0.01 0.01 0.00 0.00 0.00 0.00 0.00 0.00 0.00 0.00 0.00 0.00 0.00 0.00 0.00 0.00 0.00 0.01 0.02 0.05 0.10 0.14 0.13 0.09 0.06 0.05 0.03 0.03 0.02
0.01 0.01 0.02 0.03 0.03 0.04 0.05 0.06 0.05 0.06 0.06 0.05 0.04 0.03 0.02 0.01 0.00 0.00 0.00 0.00 0.00 0.00 0.00 0.00 0.00 0.00 0.00 0.00 0.00 0.00 0.01 0.05 0.12 0.22 0.28 0.26 0.16 0.09 0.05 0.05 0.04 0.04 0.04

GEFSGL_prec_meanprecacc_024.txt.gz
Total_Precipitation_Accumulation
0.00 0.00 0.00 0.00 0.00 0.01 0.02 0.02 0.03 0.03 0.03 0.05 0.06 0.08 0.10 0.13 0.16 0.18 0.18 0.17 0.16 0.15 0.15 0.15 0.16 0.18 0.18 0.16 0.12 0.09 0.06 0.06 0.05 0.03 0.01 0.02 0.04 0.05 0.04 0.03 0.03 0.02 0.02
0.00 0.00 0.00 0.00 0.01 0.02 0.04 0.06 0.06 0.06 0.07 0.09 0.11 0.12 0.14 0.15 0.18 0.22 0.25 0.25 0.26 0.26 0.23 0.21 0.21 0.21 0.22 0.23 0.21 0.17 0.12 0.09 0.07 0.05 0.02 0.02 0.04 0.05 0.05 0.04 0.02 0.01 0.01
0.00 0.00 0.00 0.00 0.01 0.03 0.06 0.10 0.15 0.18 0.21 0.22 0.24 0.26 0.28 0.28 0.30 0.31 0.34 0.40 0.44 0.44 0.42 0.38 0.31 0.27 0.27 0.27 0.27 0.26 0.22 0.15 0.11 0.09 0.06 0.05 0.06 0.07 0.05 0.04 0.03 0.02 0.03
0.00 0.00 0.00 0.01 0.04 0.06 0.09 0.15 0.24 0.34 0.40 0.45 0.48 0.48 0.48 0.47 0.52 0.55 0.50 0.51 0.58 0.61 0.60 0.56 0.50 0.40 0.34 0.30 0.28 0.28 0.28 0.24 0.18 0.14 0.10 0.08 0.10 0.09 0.08 0.06 0.04 0.04 0.04
0.01 0.01 0.02 0.05 0.10 0.17 0.19 0.23 0.30 0.39 0.47 0.50 0.51 0.50 0.49 0.52 0.65 0.64 0.47 0.46 0.51 0.55 0.57 0.58 0.56 0.54 0.48 0.39 0.33 0.28 0.26 0.27 0.25 0.21 0.15 0.11 0.09 0.11 0.13 0.12 0.11 0.08 0.06
0.02 0.03 0.06 0.11 0.18 0.25 0.29 0.32 0.39 0.44 0.47 0.46 0.46 0.44 0.41 0.42 0.56 0.52 0.31 0.27 0.32 0.39 0.43 0.43 0.43 0.44 0.43 0.41 0.37 0.31 0.28 0.27 0.27 0.24 0.21 0.16 0.13 0.13 0.14 0.17 0.17 0.16 0.11
0.04 0.06 0.10 0.13 0.17 0.20 0.22 0.27 0.32 0.30 0.26 0.28 0.33 0.31 0.28 0.28 0.39 0.37 0.16 0.09 0.11 0.15 0.20 0.23 0.25 0.26 0.27 0.26 0.24 0.21 0.23 0.25 0.26 0.25 0.25 0.21 0.17 0.15 0.14 0.16 0.19 0.20 0.16
0.04 0.07 0.10 0.12 0.15 0.14 0.13 0.16 0.19 0.15 0.15 0.18 0.19 0.15 0.11 0.11 0.23 0.26 0.11 0.02 0.03 0.05 0.07 0.10 0.12 0.14 0.15 0.17 0.17 0.14 0.15 0.19 0.23 0.24 0.27 0.27 0.22 0.18 0.16 0.18 0.21 0.22 0.21
0.04 0.05 0.07 0.10 0.14 0.11 0.09 0.09 0.12 0.12 0.11 0.10 0.09 0.05 0.03 0.03 0.14 0.25 0.15 0.01 0.01 0.01 0.02 0.06 0.07 0.06 0.09 0.08 0.12 0.13 0.12 0.15 0.18 0.21 0.23 0.23 0.22 0.21 0.19 0.20 0.24 0.27 0.28
0.02 0.03 0.03 0.04 0.06 0.04 0.02 0.02 0.03 0.04 0.04 0.03 0.02 0.01 0.00 0.01 0.06 0.24 0.23 0.03 0.01 0.01 0.01 0.06 0.12 0.08 0.06 0.04 0.07 0.10 0.10 0.11 0.09 0.09 0.08 0.08 0.09 0.11 0.14 0.19 0.23 0.24 0.25
0.00 0.00 0.00 0.00 0.00 0.00 0.00 0.00 0.00 0.01 0.01 0.01 0.00 0.00 0.00 0.00 0.01 0.14 0.30 0.15 0.04 0.01 0.02 0.08 0.14 0.09 0.06 0.05 0.04 0.06 0.08 0.06 0.04 0.03 0.03 0.04 0.04 0.06 0.09 0.13 0.16 0.17 0.18
0.00 0.00 0.00 0.00 0.00 0.00 0.00 0.00 0.00 0.00 0.00 0.00 0.00 0.00 0.00 0.00 0.01 0.07 0.17 0.23 0.14 0.04 0.04 0.06 0.09 0.06 0.04 0.02 0.02 0.02 0.02 0.01 0.01 0.01 0.01 0.01 0.02 0.03 0.04 0.06 0.08 0.10 0.12
0.00 0.00 0.00 0.00 0.00 0.00 0.00 0.00 0.00 0.00 0.01 0.01 0.01 0.00 0.00 0.00 0.01 0.05 0.05 0.07 0.11 0.10 0.16 0.16 0.05 0.01 0.00 0.00 0.00 0.00 0.00 0.00 0.00 0.00 0.00 0.00 0.00 0.01 0.01 0.02 0.02 0.03 0.04
0.00 0.00 0.00 0.00 0.00 0.00 0.00 0.00 0.01 0.01 0.05 0.08 0.05 0.02 0.00 0.01 0.04 0.10 0.05 0.03 0.05 0.07 0.11 0.12 0.03 0.00 0.00 0.00 0.00 0.00 0.00 0.00 0.00 0.00 0.00 0.00 0.00 0.00 0.00 0.00 0.00 0.01 0.01
0.00 0.00 0.00 0.00 0.00 0.00 0.00 0.00 0.01 0.03 0.10 0.17 0.10 0.06 0.04 0.06 0.13 0.17 0.13 0.13 0.13 0.10 0.05 0.03 0.01 0.00 0.00 0.00 0.00 0.00 0.00 0.00 0.00 0.00 0.00 0.00 0.00 0.00 0.00 0.00 0.00 0.00 0.00
0.00 0.00 0.01 0.01 0.01 0.01 0.01 0.00 0.01 0.02 0.05 0.06 0.06 0.07 0.07 0.12 0.14 0.10 0.10 0.13 0.13 0.10 0.03 0.01 0.01 0.00 0.00 0.00 0.00 0.00 0.00 0.00 0.00 0.00 0.00 0.00 0.00 0.00 0.00 0.00 0.00 0.00 0.00
0.01 0.01 0.02 0.01 0.01 0.01 0.01 0.02 0.01 0.01 0.01 0.01 0.02 0.03 0.06 0.11 0.08 0.06 0.08 0.09 0.08 0.04 0.01 0.00 0.00 0.00 0.00 0.00 0.00 0.00 0.00 0.00 0.00 0.00 0.00 0.00 0.00 0.00 0.00 0.00 0.00 0.00 0.00
0.01 0.01 0.02 0.02 0.02 0.03 0.03 0.03 0.03 0.02 0.01 0.00 0.00 0.01 0.03 0.06 0.05 0.03 0.06 0.05 0.02 0.01 0.01 0.00 0.00 0.00 0.00 0.00 0.00 0.00 0.00 0.00 0.00 0.00 0.00 0.00 0.00 0.00 0.00 0.00 0.00 0.00 0.00
0.01 0.02 0.03 0.03 0.03 0.03 0.03 0.03 0.03 0.02 0.02 0.01 0.00 0.00 0.00 0.01 0.01 0.01 0.01 0.01 0.00 0.00 0.00 0.00 0.00 0.00 0.00 0.00 0.00 0.00 0.00 0.00 0.00 0.00 0.00 0.00 0.00 0.00 0.00 0.00 0.00 0.00 0.00
0.00 0.01 0.03 0.03 0.03 0.03 0.03 0.03 0.03 0.03 0.02 0.01 0.01 0.00 0.01 0.00 0.00 0.00 0.00 0.00 0.00 0.00 0.00 0.00 0.00 0.00 0.00 0.00 0.00 0.00 0.00 0.00 0.00 0.00 0.00 0.00 0.00 0.00 0.00 0.00 0.00 0.00 0.00
0.01 0.01 0.02 0.02 0.02 0.03 0.04 0.04 0.04 0.04 0.03 0.02 0.01 0.01 0.06 0.04 0.01 0.00 0.00 0.00 0.00 0.00 0.00 0.00 0.00 0.00 0.00 0.00 0.00 0.00 0.00 0.00 0.00 0.00 0.00 0.00 0.00 0.00 0.00 0.00 0.00 0.00 0.00
0.02 0.03 0.03 0.04 0.04 0.04 0.05 0.04 0.04 0.04 0.03 0.03 0.01 0.01 0.03 0.02 0.00 0.00 0.00 0.00 0.00 0.00 0.00 0.00 0.00 0.00 0.00 0.00 0.00 0.00 0.00 0.00 0.00 0.00 0.00 0.00 0.00 0.00 0.00 0.00 0.00 0.00 0.01
0.05 0.05 0.03 0.02 0.02 0.02 0.02 0.02 0.03 0.03 0.03 0.02 0.02 0.01 0.01 0.00 0.00 0.00 0.00 0.00 0.00 0.00 0.00 0.00 0.00 0.00 0.00 0.00 0.00 0.00 0.00 0.00 0.00 0.00 0.00 0.00 0.00 0.00 0.00 0.00 0.00 0.01 0.01
0.05 0.03 0.02 0.02 0.01 0.02 0.02 0.02 0.03 0.04 0.04 0.03 0.02 0.02 0.01 0.00 0.00 0.00 0.00 0.00 0.00 0.00 0.00 0.00 0.00 0.00 0.00 0.00 0.00 0.00 0.00 0.00 0.00 0.01 0.01 0.01 0.01 0.01 0.01 0.01 0.01 0.01 0.01
0.01 0.01 0.02 0.02 0.03 0.03 0.03 0.03 0.03 0.04 0.04 0.04 0.03 0.02 0.01 0.01 0.00 0.00 0.00 0.00 0.00 0.00 0.00 0.00 0.00 0.00 0.00 0.00 0.00 0.00 0.00 0.01 0.04 0.09 0.14 0.16 0.14 0.09 0.07 0.06 0.04 0.03 0.03
0.01 0.02 0.03 0.04 0.04 0.04 0.05 0.06 0.05 0.06 0.06 0.05 0.04 0.03 0.02 0.01 0.00 0.00 0.00 0.00 0.00 0.00 0.00 0.00 0.00 0.00 0.00 0.00 0.00 0.00 0.02 0.06 0.16 0.28 0.35 0.31 0.20 0.11 0.07 0.06 0.04 0.04 0.04

GEFSGL_prec_meanprecacc_030.txt.gz
Total_Precipitation_Accumulation
0.00 0.00 0.00 0.00 0.00 0.01 0.02 0.02 0.03 0.03 0.03 0.05 0.06 0.08 0.10 0.13 0.17 0.20 0.20 0.19 0.18 0.17 0.17 0.19 0.21 0.23 0.26 0.25 0.22 0.17 0.12 0.11 0.09 0.05 0.03 0.04 0.07 0.10 0.09 0.06 0.05 0.03 0.03
0.00 0.00 0.00 0.00 0.01 0.02 0.04 0.06 0.06 0.06 0.07 0.09 0.11 0.12 0.14 0.16 0.19 0.24 0.28 0.27 0.29 0.28 0.25 0.24 0.25 0.26 0.28 0.29 0.28 0.25 0.20 0.14 0.12 0.08 0.05 0.04 0.07 0.10 0.12 0.10 0.08 0.05 0.03
0.00 0.00 0.00 0.00 0.01 0.03 0.06 0.10 0.15 0.18 0.21 0.22 0.24 0.26 0.28 0.29 0.32 0.34 0.39 0.45 0.47 0.46 0.44 0.42 0.37 0.33 0.33 0.32 0.33 0.32 0.27 0.20 0.15 0.13 0.09 0.08 0.10 0.12 0.14 0.13 0.12 0.09 0.07
0.00 0.00 0.00 0.01 0.04 0.06 0.09 0.15 0.24 0.34 0.40 0.45 0.48 0.48 0.48 0.48 0.54 0.60 0.60 0.58 0.60 0.62 0.62 0.62 0.58 0.50 0.43 0.38 0.35 0.33 0.32 0.28 0.22 0.18 0.15 0.13 0.15 0.16 0.19 0.16 0.14 0.11 0.09
0.01 0.01 0.02 0.05 0.10 0.17 0.19 0.23 0.30 0.39 0.47 0.51 0.51 0.51 0.49 0.53 0.66 0.73 0.65 0.54 0.53 0.56 0.59 0.61 0.64 0.66 0.62 0.53 0.47 0.38 0.32 0.32 0.31 0.27 0.22 0.18 0.16 0.20 0.24 0.24 0.22 0.16 0.12
0.02 0.03 0.06 0.11 0.18 0.25 0.29 0.32 0.39 0.44 0.47 0.46 0.46 0.44 0.41 0.42 0.57 0.61 0.48 0.34 0.34 0.40 0.46 0.47 0.49 0.55 0.56 0.57 0.56 0.49 0.44 0.39 0.38 0.36 0.34 0.29 0.25 0.25 0.30 0.35 0.32 0.26 0.20
0.04 0.06 0.10 0.13 0.17 0.20 0.23 0.27 0.32 0.30 0.26 0.28 0.33 0.31 0.28 0.28 0.41 0.46 0.30 0.13 0.12 0.17 0.24 0.30 0.32 0.36 0.39 0.40 0.39 0.36 0.41 0.46 0.48 0.47 0.47 0.45 0.37 0.35 0.36 0.38 0.39 0.32 0.26
0.04 0.07 0.10 0.12 0.16 0.14 0.13 0.16 0.19 0.16 0.15 0.18 0.19 0.15 0.11 0.11 0.25 0.36 0.22 0.05 0.05 0.08 0.15 0.20 0.21 0.24 0.27 0.29 0.30 0.29 0.31 0.41 0.52 0.54 0.57 0.56 0.49 0.46 0.48 0.53 0.54 0.45 0.37
0.04 0.05 0.07 0.10 0.14 0.11 0.09 0.10 0.12 0.12 0.11 0.10 0.09 0.06 0.03 0.03 0.17 0.36 0.24 0.03 0.03 0.06 0.13 0.19 0.16 0.14 0.18 0.15 0.21 0.26 0.25 0.32 0.39 0.47 0.48 0.47 0.48 0.54 0.60 0.63 0.69 0.66 0.61
0.02 0.03 0.03 0.04 0.06 0.04 0.02 0.02 0.03 0.04 0.05 0.04 0.02 0.01 0.00 0.01 0.09 0.34 0.33 0.05 0.04 0.06 0.10 0.16 0.21 0.13 0.11 0.08 0.12 0.18 0.19 0.23 0.22 0.23 0.26 0.28 0.32 0.40 0.52 0.64 0.73 0.74 0.71
0.00 0.00 0.00 0.00 0.00 0.00 0.00 0.00 0.01 0.01 0.01 0.01 0.01 0.00 0.00 0.01 0.03 0.21 0.41 0.20 0.08 0.06 0.08 0.15 0.18 0.12 0.07 0.06 0.06 0.10 0.14 0.11 0.10 0.12 0.14 0.18 0.23 0.31 0.42 0.54 0.63 0.67 0.66
0.00 0.00 0.00 0.00 0.00 0.00 0.00 0.00 0.00 0.01 0.01 0.01 0.01 0.01 0.00 0.00 0.02 0.11 0.24 0.33 0.20 0.08 0.10 0.10 0.11 0.07 0.04 0.03 0.02 0.03 0.03 0.03 0.04 0.05 0.07 0.09 0.14 0.21 0.30 0.39 0.47 0.54 0.59
0.00 0.00 0.00 0.00 0.00 0.00 0.01 0.01 0.01 0.01 0.02 0.04 0.03 0.02 0.01 0.01 0.03 0.07 0.08 0.12 0.17 0.13 0.21 0.19 0.05 0.01 0.00 0.00 0.00 0.00 0.00 0.01 0.02 0.03 0.04 0.05 0.07 0.10 0.14 0.19 0.25 0.30 0.34
0.00 0.00 0.00 0.00 0.00 0.00 0.00 0.01 0.01 0.03 0.09 0.13 0.08 0.04 0.03 0.03 0.06 0.11 0.06 0.04 0.06 0.08 0.12 0.12 0.03 0.00 0.00 0.00 0.00 0.00 0.00 0.00 0.01 0.01 0.02 0.02 0.03 0.03 0.05 0.07 0.11 0.15 0.17
0.00 0.00 0.00 0.00 0.00 0.01 0.00 0.01 0.02 0.04 0.16 0.22 0.13 0.11 0.09 0.10 0.16 0.18 0.14 0.14 0.14 0.11 0.05 0.03 0.01 0.00 0.00 0.00 0.00 0.00 0.00 0.00 0.00 0.00 0.00 0.01 0.01 0.01 0.02 0.03 0.04 0.06 0.08
0.00 0.00 0.01 0.01 0.01 0.01 0.01 0.01 0.01 0.03 0.07 0.08 0.08 0.11 0.12 0.17 0.16 0.11 0.10 0.14 0.14 0.10 0.03 0.01 0.01 0.00 0.00 0.00 0.00 0.00 0.00 0.00 0.00 0.00 0.00 0.00 0.00 0.00 0.01 0.01 0.01 0.02 0.03
0.01 0.01 0.02 0.02 0.01 0.01 0.01 0.02 0.02 0.01 0.01 0.02 0.02 0.05 0.10 0.14 0.09 0.06 0.08 0.09 0.08 0.04 0.01 0.00 0.00 0.00 0.00 0.00 0.00 0.00 0.00 0.00 0.00 0.00 0.00 0.00 0.00 0.00 0.00 0.00 0.00 0.00 0.01
0.01 0.01 0.02 0.02 0.02 0.03 0.03 0.03 0.03 0.03 0.02 0.00 0.00 0.01 0.04 0.07 0.05 0.04 0.06 0.05 0.02 0.01 0.01 0.00 0.00 0.00 0.00 0.00 0.00 0.00 0.00 0.00 0.00 0.00 0.00 0.00 0.00 0.00 0.00 0.00 0.00 0.00 0.00
0.01 0.02 0.04 0.03 0.03 0.03 0.03 0.03 0.03 0.02 0.02 0.01 0.00 0.00 0.01 0.01 0.01 0.01 0.01 0.01 0.00 0.00 0.00 0.00 0.00 0.00 0.00 0.00 0.00 0.00 0.00 0.00 0.00 0.00 0.00 0.00 0.00 0.00 0.00 0.00 0.00 0.00 0.00
0.00 0.01 0.03 0.03 0.03 0.03 0.03 0.03 0.03 0.03 0.02 0.02 0.01 0.01 0.01 0.01 0.00 0.00 0.00 0.00 0.00 0.00 0.00 0.00 0.00 0.00 0.00 0.00 0.00 0.00 0.00 0.00 0.00 0.00 0.00 0.00 0.00 0.00 0.00 0.00 0.00 0.00 0.00
0.01 0.01 0.02 0.02 0.02 0.03 0.04 0.04 0.04 0.04 0.03 0.02 0.01 0.02 0.07 0.04 0.01 0.00 0.00 0.00 0.00 0.00 0.00 0.00 0.00 0.00 0.00 0.00 0.00 0.00 0.00 0.00 0.00 0.00 0.00 0.00 0.00 0.00 0.00 0.00 0.00 0.00 0.00
0.02 0.03 0.03 0.04 0.04 0.04 0.05 0.04 0.04 0.04 0.03 0.03 0.01 0.01 0.03 0.02 0.00 0.00 0.00 0.00 0.00 0.00 0.00 0.00 0.00 0.00 0.00 0.00 0.00 0.00 0.00 0.00 0.00 0.00 0.00 0.00 0.00 0.00 0.00 0.00 0.00 0.00 0.01
0.05 0.05 0.03 0.02 0.02 0.02 0.02 0.02 0.03 0.04 0.03 0.03 0.02 0.01 0.01 0.00 0.00 0.00 0.00 0.00 0.00 0.00 0.00 0.00 0.00 0.00 0.00 0.00 0.00 0.00 0.00 0.00 0.00 0.00 0.00 0.00 0.00 0.00 0.00 0.00 0.00 0.01 0.01
0.05 0.03 0.02 0.02 0.01 0.02 0.02 0.02 0.03 0.04 0.04 0.04 0.03 0.02 0.02 0.01 0.01 0.00 0.00 0.00 0.00 0.00 0.00 0.00 0.00 0.00 0.00 0.00 0.00 0.00 0.00 0.00 0.00 0.01 0.01 0.01 0.01 0.01 0.01 0.02 0.02 0.01 0.01
0.01 0.01 0.02 0.02 0.03 0.03 0.03 0.03 0.04 0.05 0.06 0.05 0.05 0.04 0.03 0.03 0.02 0.02 0.01 0.01 0.01 0.01 0.00 0.00 0.00 0.00 0.00 0.00 0.00 0.00 0.00 0.01 0.04 0.10 0.16 0.18 0.15 0.10 0.07 0.06 0.04 0.03 0.03
0.01 0.02 0.03 0.04 0.04 0.04 0.06 0.07 0.06 0.07 0.08 0.07 0.07 0.06 0.05 0.05 0.04 0.03 0.03 0.03 0.03 0.02 0.01 0.01 0.00 0.00 0.00 0.00 0.00 0.00 0.02 0.06 0.17 0.30 0.38 0.35 0.22 0.13 0.08 0.07 0.05 0.05 0.04

GEFSGL_prec_meanprecacc_036.txt.gz
Total_Precipitation_Accumulation
0.00 0.00 0.00 0.00 0.00 0.01 0.02 0.02 0.03 0.03 0.03 0.05 0.06 0.08 0.10 0.13 0.17 0.20 0.20 0.21 0.20 0.19 0.18 0.20 0.21 0.25 0.29 0.29 0.26 0.23 0.18 0.16 0.13 0.06 0.04 0.07 0.13 0.17 0.17 0.15 0.13 0.10 0.08
0.00 0.00 0.00 0.00 0.01 0.02 0.04 0.06 0.06 0.06 0.07 0.09 0.11 0.12 0.14 0.16 0.20 0.26 0.29 0.29 0.32 0.31 0.27 0.25 0.26 0.28 0.32 0.34 0.35 0.33 0.28 0.22 0.17 0.10 0.05 0.06 0.12 0.18 0.21 0.21 0.18 0.13 0.09
0.00 0.00 0.00 0.00 0.01 0.03 0.06 0.10 0.15 0.19 0.21 0.23 0.24 0.26 0.28 0.29 0.33 0.37 0.41 0.48 0.52 0.50 0.47 0.45 0.40 0.39 0.40 0.38 0.39 0.38 0.34 0.28 0.22 0.17 0.11 0.09 0.13 0.19 0.24 0.25 0.23 0.18 0.14
0.00 0.00 0.00 0.01 0.04 0.06 0.09 0.15 0.24 0.34 0.41 0.45 0.49 0.49 0.49 0.49 0.57 0.65 0.68 0.67 0.65 0.65 0.65 0.66 0.65 0.59 0.54 0.49 0.45 0.40 0.38 0.35 0.29 0.23 0.18 0.15 0.17 0.20 0.28 0.29 0.27 0.21 0.17
0.01 0.01 0.02 0.05 0.10 0.17 0.20 0.23 0.31 0.39 0.47 0.51 0.52 0.52 0.51 0.58 0.77 0.91 0.88 0.66 0.58 0.59 0.61 0.65 0.71 0.76 0.73 0.67 0.62 0.50 0.40 0.39 0.38 0.33 0.26 0.21 0.19 0.23 0.30 0.33 0.35 0.28 0.21
0.02 0.03 0.06 0.11 0.18 0.25 0.29 0.32 0.39 0.44 0.47 0.46 0.46 0.46 0.44 0.49 0.75 0.86 0.69 0.43 0.38 0.43 0.49 0.50 0.53 0.62 0.63 0.65 0.68 0.60 0.54 0.49 0.47 0.45 0.40 0.34 0.29 0.28 0.34 0.41 0.43 0.39 0.30
0.04 0.06 0.10 0.13 0.17 0.20 0.23 0.27 0.32 0.30 0.26 0.28 0.33 0.32 0.31 0.36 0.58 0.67 0.44 0.18 0.16 0.22 0.30 0.35 0.37 0.44 0.46 0.46 0.47 0.43 0.48 0.54 0.58 0.58 0.58 0.54 0.44 0.38 0.39 0.42 0.46 0.42 0.35
0.04 0.07 0.10 0.12 0.16 0.14 0.13 0.16 0.19 0.16 0.15 0.18 0.19 0.15 0.13 0.18 0.40 0.51 0.30 0.07 0.08 0.14 0.22 0.28 0.27 0.31 0.34 0.34 0.36 0.35 0.38 0.49 0.62 0.66 0.70 0.67 0.57 0.51 0.51 0.56 0.59 0.54 0.49
0.04 0.05 0.07 0.10 0.14 0.11 0.09 0.10 0.12 0.12 0.11 0.10 0.09 0.06 0.03 0.07 0.28 0.49 0.29 0.04 0.05 0.09 0.17 0.25 0.22 0.17 0.23 0.17 0.23 0.30 0.30 0.38 0.46 0.56 0.57 0.55 0.53 0.58 0.63 0.67 0.75 0.76 0.77
0.02 0.03 0.03 0.04 0.06 0.04 0.03 0.02 0.03 0.04 0.05 0.04 0.02 0.01 0.01 0.02 0.15 0.46 0.39 0.06 0.05 0.07 0.10 0.17 0.24 0.17 0.15 0.10 0.13 0.20 0.23 0.28 0.28 0.29 0.31 0.33 0.37 0.45 0.57 0.70 0.80 0.85 0.87
0.00 0.00 0.00 0.00 0.00 0.00 0.00 0.00 0.01 0.01 0.01 0.01 0.01 0.00 0.00 0.01 0.04 0.28 0.49 0.23 0.08 0.06 0.09 0.16 0.19 0.13 0.09 0.07 0.07 0.12 0.19 0.15 0.15 0.18 0.20 0.24 0.31 0.39 0.51 0.63 0.75 0.81 0.83
0.00 0.00 0.00 0.00 0.00 0.00 0.00 0.00 0.00 0.01 0.01 0.01 0.01 0.01 0.01 0.01 0.03 0.13 0.28 0.37 0.21 0.08 0.11 0.11 0.11 0.07 0.05 0.03 0.03 0.04 0.04 0.04 0.06 0.08 0.11 0.16 0.25 0.35 0.46 0.55 0.65 0.75 0.83
0.00 0.00 0.00 0.00 0.00 0.00 0.01 0.01 0.01 0.01 0.03 0.04 0.03 0.02 0.01 0.01 0.03 0.08 0.09 0.13 0.18 0.13 0.21 0.19 0.05 0.01 0.00 0.00 0.01 0.00 0.00 0.01 0.03 0.05 0.08 0.13 0.19 0.27 0.32 0.39 0.47 0.55 0.63
0.00 0.00 0.00 0.00 0.00 0.00 0.00 0.01 0.02 0.04 0.13 0.14 0.08 0.05 0.03 0.03 0.07 0.12 0.06 0.05 0.06 0.08 0.12 0.12 0.03 0.00 0.00 0.00 0.00 0.00 0.00 0.01 0.01 0.03 0.05 0.07 0.11 0.15 0.20 0.27 0.34 0.41 0.47
0.00 0.00 0.00 0.00 0.00 0.01 0.00 0.01 0.03 0.05 0.19 0.24 0.15 0.12 0.11 0.12 0.18 0.20 0.15 0.15 0.15 0.11 0.05 0.03 0.01 0.00 0.00 0.00 0.00 0.00 0.00 0.00 0.00 0.01 0.02 0.03 0.06 0.09 0.14 0.19 0.25 0.30 0.36
0.00 0.00 0.01 0.01 0.01 0.01 0.01 0.01 0.01 0.03 0.08 0.09 0.09 0.13 0.14 0.19 0.18 0.12 0.11 0.15 0.14 0.11 0.03 0.01 0.01 0.00 0.00 0.00 0.00 0.00 0.00 0.00 0.00 0.00 0.01 0.01 0.03 0.06 0.09 0.13 0.18 0.22 0.27
0.01 0.01 0.02 0.02 0.01 0.01 0.01 0.02 0.02 0.01 0.01 0.02 0.03 0.05 0.11 0.15 0.11 0.07 0.09 0.09 0.08 0.04 0.01 0.00 0.00 0.00 0.00 0.00 0.00 0.00 0.00 0.00 0.00 0.00 0.00 0.01 0.01 0.03 0.05 0.08 0.11 0.15 0.19
0.01 0.01 0.02 0.02 0.02 0.03 0.03 0.03 0.03 0.03 0.02 0.00 0.00 0.01 0.04 0.08 0.06 0.04 0.06 0.05 0.02 0.01 0.01 0.00 0.00 0.00 0.00 0.00 0.00 0.00 0.00 0.00 0.00 0.00 0.00 0.00 0.00 0.01 0.02 0.04 0.06 0.09 0.13
0.01 0.02 0.04 0.03 0.03 0.03 0.03 0.03 0.03 0.02 0.02 0.01 0.00 0.00 0.01 0.02 0.01 0.01 0.01 0.01 0.00 0.00 0.00 0.00 0.00 0.00 0.00 0.00 0.00 0.00 0.00 0.00 0.00 0.00 0.00 0.00 0.00 0.00 0.01 0.02 0.03 0.04 0.06
0.00 0.01 0.03 0.03 0.03 0.03 0.03 0.03 0.03 0.03 0.03 0.02 0.01 0.01 0.02 0.02 0.01 0.00 0.00 0.00 0.00 0.00 0.00 0.00 0.00 0.00 0.00 0.00 0.00 0.00 0.00 0.00 0.00 0.00 0.00 0.00 0.00 0.00 0.00 0.01 0.01 0.02 0.03
0.01 0.01 0.02 0.02 0.02 0.03 0.04 0.04 0.04 0.04 0.04 0.03 0.01 0.02 0.10 0.07 0.02 0.00 0.00 0.00 0.00 0.00 0.00 0.00 0.00 0.00 0.00 0.00 0.00 0.00 0.00 0.00 0.00 0.00 0.00 0.00 0.00 0.00 0.00 0.00 0.00 0.01 0.01
0.02 0.03 0.03 0.04 0.04 0.04 0.05 0.04 0.04 0.05 0.04 0.03 0.02 0.01 0.04 0.02 0.01 0.01 0.01 0.01 0.01 0.01 0.01 0.00 0.00 0.00 0.00 0.00 0.00 0.00 0.00 0.00 0.00 0.00 0.00 0.00 0.00 0.00 0.00 0.00 0.00 0.00 0.01
0.05 0.05 0.03 0.02 0.02 0.02 0.02 0.02 0.03 0.04 0.04 0.03 0.03 0.02 0.02 0.02 0.02 0.03 0.03 0.03 0.02 0.02 0.02 0.01 0.01 0.00 0.00 0.00 0.00 0.00 0.00 0.00 0.00 0.00 0.00 0.00 0.00 0.00 0.00 0.00 0.00 0.01 0.01
0.05 0.03 0.02 0.02 0.01 0.02 0.02 0.03 0.03 0.05 0.05 0.04 0.04 0.03 0.03 0.03 0.03 0.03 0.03 0.03 0.03 0.03 0.03 0.03 0.02 0.01 0.01 0.00 0.00 0.00 0.00 0.00 0.00 0.01 0.01 0.01 0.01 0.01 0.01 0.02 0.02 0.01 0.01
0.01 0.01 0.02 0.02 0.03 0.03 0.03 0.03 0.04 0.05 0.06 0.06 0.06 0.05 0.04 0.04 0.04 0.03 0.03 0.04 0.05 0.05 0.05 0.05 0.04 0.03 0.01 0.01 0.00 0.00 0.00 0.01 0.04 0.10 0.16 0.19 0.15 0.10 0.07 0.06 0.04 0.03 0.03
0.01 0.02 0.03 0.04 0.04 0.04 0.06 0.07 0.07 0.08 0.09 0.08 0.07 0.07 0.06 0.06 0.05 0.05 0.06 0.07 0.08 0.08 0.07 0.07 0.06 0.05 0.04 0.03 0.01 0.01 0.02 0.06 0.17 0.30 0.38 0.35 0.23 0.13 0.08 0.07 0.05 0.05 0.05

GEFSGL_prec_meanprecacc_042.txt.gz
Total_Precipitation_Accumulation
0.00 0.00 0.00 0.00 0.00 0.01 0.02 0.02 0.03 0.03 0.03 0.05 0.06 0.09 0.12 0.16 0.19 0.23 0.22 0.23 0.23 0.21 0.21 0.23 0.24 0.28 0.32 0.31 0.29 0.26 0.22 0.21 0.18 0.07 0.04 0.07 0.13 0.17 0.18 0.17 0.14 0.14 0.14
0.00 0.00 0.00 0.00 0.01 0.02 0.04 0.06 0.06 0.06 0.07 0.09 0.12 0.15 0.19 0.21 0.24 0.30 0.33 0.33 0.37 0.36 0.31 0.30 0.31 0.33 0.36 0.38 0.39 0.36 0.31 0.25 0.22 0.13 0.06 0.06 0.12 0.18 0.22 0.24 0.21 0.17 0.13
0.00 0.00 0.00 0.00 0.01 0.03 0.06 0.10 0.15 0.19 0.21 0.23 0.25 0.31 0.36 0.38 0.39 0.42 0.46 0.54 0.59 0.57 0.54 0.52 0.47 0.43 0.45 0.43 0.44 0.42 0.37 0.31 0.25 0.19 0.12 0.10 0.13 0.19 0.26 0.29 0.29 0.25 0.20
0.00 0.00 0.00 0.01 0.04 0.06 0.09 0.15 0.24 0.34 0.41 0.46 0.50 0.53 0.58 0.63 0.67 0.72 0.75 0.75 0.73 0.72 0.70 0.70 0.70 0.65 0.61 0.56 0.52 0.46 0.42 0.38 0.32 0.25 0.19 0.16 0.18 0.22 0.30 0.34 0.36 0.32 0.28
0.01 0.01 0.02 0.05 0.10 0.17 0.20 0.23 0.31 0.39 0.47 0.51 0.52 0.53 0.58 0.77 0.96 1.03 0.97 0.74 0.63 0.63 0.64 0.68 0.74 0.82 0.80 0.75 0.73 0.58 0.45 0.43 0.41 0.36 0.28 0.23 0.21 0.25 0.33 0.39 0.46 0.43 0.38
0.02 0.03 0.06 0.11 0.18 0.25 0.29 0.32 0.39 0.44 0.47 0.46 0.46 0.46 0.48 0.64 0.93 0.98 0.74 0.46 0.40 0.46 0.53 0.53 0.56 0.66 0.68 0.68 0.74 0.67 0.61 0.57 0.54 0.49 0.44 0.38 0.32 0.32 0.37 0.47 0.53 0.57 0.52
0.04 0.06 0.10 0.13 0.17 0.20 0.23 0.27 0.32 0.30 0.26 0.28 0.33 0.32 0.32 0.42 0.71 0.75 0.46 0.19 0.17 0.25 0.33 0.38 0.40 0.47 0.52 0.49 0.50 0.47 0.52 0.60 0.67 0.65 0.64 0.59 0.49 0.43 0.43 0.47 0.53 0.58 0.59
0.04 0.07 0.10 0.12 0.16 0.14 0.13 0.16 0.19 0.16 0.15 0.18 0.19 0.15 0.13 0.20 0.49 0.58 0.31 0.07 0.08 0.15 0.24 0.30 0.29 0.33 0.40 0.38 0.38 0.37 0.41 0.52 0.68 0.73 0.78 0.73 0.62 0.54 0.54 0.60 0.65 0.64 0.70
0.04 0.05 0.07 0.10 0.14 0.11 0.09 0.10 0.12 0.12 0.11 0.10 0.09 0.06 0.04 0.08 0.34 0.56 0.30 0.04 0.05 0.09 0.18 0.26 0.23 0.18 0.27 0.21 0.24 0.32 0.32 0.40 0.48 0.60 0.62 0.59 0.56 0.60 0.66 0.71 0.80 0.84 0.93
0.02 0.03 0.03 0.04 0.06 0.04 0.03 0.02 0.03 0.04 0.05 0.04 0.02 0.01 0.01 0.02 0.18 0.52 0.41 0.06 0.05 0.07 0.10 0.17 0.25 0.18 0.17 0.13 0.15 0.22 0.26 0.30 0.29 0.31 0.32 0.35 0.39 0.47 0.60 0.73 0.87 0.94 1.00
0.00 0.00 0.00 0.00 0.00 0.00 0.00 0.00 0.01 0.01 0.01 0.01 0.01 0.00 0.00 0.01 0.05 0.31 0.52 0.24 0.08 0.06 0.09 0.16 0.19 0.14 0.10 0.09 0.09 0.15 0.23 0.18 0.16 0.19 0.22 0.26 0.32 0.41 0.53 0.67 0.81 0.90 0.96
0.00 0.00 0.00 0.00 0.00 0.00 0.00 0.00 0.00 0.01 0.01 0.01 0.01 0.01 0.01 0.01 0.03 0.15 0.30 0.38 0.22 0.08 0.11 0.11 0.11 0.07 0.05 0.04 0.04 0.06 0.05 0.05 0.07 0.09 0.12 0.18 0.27 0.38 0.50 0.60 0.71 0.83 0.95
0.00 0.00 0.00 0.00 0.00 0.00 0.01 0.01 0.01 0.01 0.03 0.04 0.03 0.02 0.01 0.01 0.04 0.10 0.10 0.14 0.18 0.13 0.21 0.19 0.05 0.01 0.00 0.01 0.01 0.01 0.01 0.02 0.03 0.06 0.09 0.16 0.23 0.33 0.38 0.44 0.52 0.64 0.74
0.00 0.00 0.00 0.00 0.00 0.00 0.00 0.01 0.02 0.04 0.14 0.16 0.09 0.06 0.03 0.03 0.09 0.16 0.09 0.05 0.07 0.08 0.12 0.12 0.03 0.00 0.00 0.00 0.00 0.00 0.00 0.01 0.02 0.04 0.07 0.10 0.14 0.19 0.25 0.33 0.41 0.50 0.60
0.00 0.00 0.00 0.00 0.00 0.01 0.00 0.01 0.03 0.05 0.21 0.27 0.16 0.14 0.12 0.13 0.21 0.25 0.17 0.16 0.15 0.12 0.05 0.03 0.01 0.00 0.00 0.00 0.00 0.00 0.00 0.00 0.01 0.02 0.03 0.05 0.09 0.14 0.20 0.26 0.34 0.41 0.51
0.00 0.00 0.01 0.01 0.01 0.01 0.01 0.01 0.01 0.03 0.09 0.10 0.10 0.15 0.15 0.22 0.22 0.15 0.13 0.16 0.15 0.11 0.03 0.01 0.01 0.00 0.00 0.00 0.00 0.00 0.00 0.00 0.00 0.01 0.01 0.03 0.06 0.10 0.15 0.20 0.27 0.34 0.43
0.01 0.01 0.02 0.02 0.01 0.01 0.01 0.02 0.02 0.01 0.01 0.02 0.03 0.06 0.12 0.18 0.13 0.09 0.11 0.10 0.08 0.04 0.01 0.00 0.00 0.00 0.00 0.00 0.00 0.00 0.00 0.00 0.00 0.00 0.01 0.01 0.03 0.06 0.10 0.15 0.20 0.27 0.35
0.01 0.01 0.02 0.02 0.02 0.03 0.03 0.03 0.03 0.03 0.02 0.00 0.00 0.01 0.05 0.09 0.07 0.06 0.07 0.06 0.02 0.01 0.01 0.00 0.00 0.00 0.00 0.00 0.00 0.00 0.00 0.00 0.00 0.00 0.00 0.01 0.01 0.03 0.06 0.10 0.15 0.21 0.28
0.01 0.02 0.04 0.03 0.03 0.03 0.03 0.03 0.03 0.03 0.02 0.01 0.00 0.00 0.01 0.02 0.02 0.01 0.02 0.01 0.01 0.01 0.00 0.00 0.00 0.00 0.00 0.00 0.00 0.00 0.00 0.00 0.00 0.00 0.00 0.00 0.01 0.02 0.04 0.06 0.10 0.15 0.20
0.00 0.01 0.03 0.03 0.03 0.03 0.03 0.03 0.03 0.03 0.03 0.02 0.02 0.02 0.05 0.04 0.01 0.01 0.01 0.01 0.01 0.01 0.01 0.01 0.00 0.00 0.00 0.00 0.00 0.00 0.00 0.00 0.00 0.00 0.00 0.00 0.00 0.01 0.02 0.04 0.06 0.09 0.14
0.01 0.01 0.02 0.02 0.02 0.03 0.04 0.04 0.04 0.04 0.04 0.03 0.02 0.03 0.13 0.09 0.02 0.01 0.01 0.02 0.03 0.03 0.02 0.02 0.01 0.01 0.00 0.00 0.00 0.00 0.00 0.00 0.00 0.00 0.00 0.00 0.00 0.00 0.01 0.02 0.04 0.06 0.09
0.02 0.03 0.03 0.04 0.04 0.04 0.05 0.04 0.04 0.05 0.04 0.03 0.02 0.01 0.04 0.02 0.02 0.02 0.02 0.03 0.03 0.04 0.04 0.03 0.02 0.01 0.01 0.01 0.01 0.00 0.00 0.00 0.00 0.00 0.00 0.00 0.00 0.00 0.00 0.01 0.02 0.03 0.05
0.05 0.05 0.03 0.02 0.02 0.02 0.02 0.02 0.03 0.04 0.04 0.03 0.03 0.02 0.02 0.02 0.03 0.03 0.04 0.04 0.04 0.04 0.04 0.05 0.04 0.02 0.02 0.01 0.01 0.01 0.00 0.00 0.00 0.00 0.00 0.00 0.00 0.00 0.00 0.01 0.01 0.02 0.04
0.05 0.03 0.02 0.02 0.01 0.02 0.02 0.03 0.03 0.05 0.05 0.04 0.04 0.04 0.03 0.03 0.03 0.03 0.04 0.04 0.04 0.05 0.06 0.07 0.06 0.04 0.04 0.03 0.02 0.01 0.00 0.00 0.00 0.01 0.01 0.01 0.01 0.01 0.01 0.02 0.02 0.02 0.03
0.01 0.01 0.02 0.02 0.03 0.03 0.03 0.03 0.04 0.05 0.06 0.06 0.06 0.05 0.05 0.04 0.04 0.04 0.04 0.04 0.05 0.06 0.06 0.07 0.08 0.07 0.06 0.05 0.04 0.02 0.01 0.01 0.04 0.10 0.16 0.19 0.15 0.10 0.08 0.06 0.04 0.03 0.03
0.01 0.02 0.03 0.04 0.04 0.04 0.06 0.07 0.07 0.08 0.09 0.08 0.07 0.07 0.07 0.06 0.06 0.05 0.06 0.08 0.10 0.09 0.08 0.08 0.09 0.10 0.09 0.08 0.06 0.04 0.04 0.07 0.17 0.30 0.38 0.35 0.23 0.13 0.08 0.07 0.05 0.05 0.05

GEFSGL_prec_meanprecacc_048.txt.gz
Total_Precipitation_Accumulation
0.00 0.00 0.00 0.00 0.00 0.01 0.02 0.02 0.03 0.03 0.03 0.05 0.07 0.09 0.13 0.18 0.21 0.25 0.25 0.26 0.27 0.26 0.27 0.29 0.30 0.34 0.37 0.35 0.33 0.31 0.27 0.27 0.23 0.08 0.05 0.07 0.13 0.17 0.19 0.18 0.16 0.15 0.17
0.00 0.00 0.00 0.00 0.01 0.02 0.04 0.06 0.06 0.06 0.07 0.09 0.12 0.15 0.20 0.23 0.26 0.32 0.35 0.36 0.41 0.40 0.36 0.35 0.36 0.37 0.40 0.42 0.43 0.40 0.34 0.28 0.26 0.15 0.06 0.06 0.12 0.18 0.22 0.25 0.23 0.19 0.16
0.00 0.00 0.00 0.00 0.01 0.03 0.06 0.10 0.15 0.19 0.21 0.23 0.26 0.31 0.37 0.40 0.42 0.44 0.48 0.56 0.61 0.60 0.57 0.55 0.50 0.48 0.50 0.48 0.48 0.46 0.40 0.33 0.28 0.22 0.13 0.10 0.14 0.20 0.26 0.30 0.31 0.28 0.23
0.00 0.00 0.00 0.01 0.04 0.06 0.09 0.15 0.24 0.34 0.41 0.46 0.50 0.53 0.58 0.66 0.76 0.79 0.76 0.75 0.74 0.73 0.72 0.72 0.72 0.70 0.68 0.63 0.58 0.50 0.45 0.41 0.34 0.28 0.21 0.18 0.20 0.23 0.31 0.35 0.37 0.35 0.32
0.01 0.01 0.02 0.05 0.10 0.17 0.20 0.23 0.31 0.39 0.47 0.51 0.52 0.53 0.58 0.79 1.13 1.19 0.98 0.74 0.63 0.63 0.65 0.68 0.76 0.85 0.85 0.81 0.80 0.64 0.49 0.46 0.44 0.38 0.31 0.26 0.24 0.28 0.35 0.40 0.48 0.46 0.42
0.02 0.03 0.06 0.11 0.18 0.25 0.29 0.32 0.39 0.44 0.47 0.46 0.46 0.46 0.48 0.66 1.05 1.12 0.77 0.47 0.40 0.46 0.53 0.54 0.56 0.68 0.72 0.72 0.77 0.72 0.67 0.64 0.61 0.54 0.47 0.42 0.36 0.35 0.39 0.48 0.55 0.61 0.57
0.04 0.06 0.10 0.13 0.17 0.20 0.23 0.27 0.32 0.30 0.26 0.28 0.33 0.32 0.32 0.43 0.78 0.87 0.49 0.19 0.18 0.25 0.33 0.38 0.40 0.48 0.57 0.55 0.52 0.49 0.55 0.64 0.74 0.73 0.70 0.64 0.53 0.46 0.45 0.48 0.55 0.62 0.64
0.04 0.07 0.10 0.12 0.16 0.14 0.13 0.16 0.19 0.16 0.15 0.18 0.19 0.15 0.13 0.20 0.53 0.69 0.36 0.08 0.09 0.15 0.24 0.30 0.30 0.34 0.46 0.47 0.40 0.39 0.43 0.55 0.72 0.79 0.85 0.79 0.66 0.58 0.57 0.62 0.67 0.68 0.76
0.04 0.05 0.07 0.10 0.14 0.11 0.09 0.10 0.12 0.12 0.11 0.10 0.09 0.06 0.04 0.08 0.35 0.64 0.38 0.06 0.06 0.09 0.18 0.26 0.24 0.20 0.31 0.26 0.26 0.34 0.34 0.41 0.51 0.64 0.66 0.63 0.59 0.63 0.69 0.72 0.82 0.87 0.99
0.02 0.03 0.03 0.04 0.06 0.04 0.03 0.02 0.03 0.04 0.05 0.04 0.02 0.01 0.01 0.02 0.18 0.56 0.51 0.10 0.06 0.07 0.10 0.17 0.25 0.20 0.20 0.17 0.17 0.24 0.29 0.32 0.31 0.32 0.34 0.36 0.41 0.48 0.62 0.76 0.90 0.97 1.05
0.00 0.00 0.00 0.00 0.00 0.00 0.00 0.00 0.01 0.01 0.01 0.01 0.01 0.00 0.00 0.01 0.05 0.33 0.60 0.32 0.11 0.07 0.09 0.16 0.20 0.15 0.11 0.11 0.11 0.18 0.28 0.21 0.18 0.21 0.23 0.27 0.33 0.42 0.55 0.69 0.84 0.94 1.01
0.00 0.00 0.00 0.00 0.00 0.00 0.00 0.00 0.00 0.01 0.01 0.01 0.01 0.01 0.01 0.01 0.04 0.17 0.37 0.44 0.26 0.09 0.11 0.11 0.11 0.08 0.05 0.04 0.05 0.08 0.08 0.07 0.08 0.10 0.14 0.19 0.28 0.40 0.52 0.62 0.73 0.87 1.00
0.00 0.00 0.00 0.00 0.00 0.00 0.01 0.01 0.01 0.01 0.03 0.05 0.04 0.02 0.02 0.02 0.05 0.14 0.15 0.16 0.20 0.15 0.21 0.20 0.06 0.01 0.00 0.01 0.02 0.02 0.02 0.03 0.05 0.07 0.11 0.18 0.26 0.36 0.40 0.46 0.54 0.66 0.77
0.00 0.00 0.00 0.00 0.00 0.00 0.00 0.01 0.02 0.04 0.15 0.18 0.11 0.07 0.04 0.04 0.14 0.27 0.16 0.07 0.08 0.09 0.12 0.12 0.03 0.00 0.00 0.00 0.00 0.00 0.01 0.02 0.04 0.06 0.10 0.12 0.16 0.21 0.27 0.35 0.43 0.52 0.62
0.00 0.00 0.00 0.00 0.00 0.01 0.00 0.01 0.03 0.06 0.22 0.31 0.20 0.18 0.15 0.19 0.31 0.35 0.24 0.20 0.19 0.14 0.06 0.03 0.01 0.00 0.00 0.00 0.00 0.00 0.00 0.01 0.01 0.03 0.04 0.07 0.10 0.15 0.22 0.29 0.37 0.44 0.55
0.00 0.00 0.01 0.01 0.01 0.01 0.01 0.01 0.01 0.03 0.09 0.10 0.11 0.17 0.18 0.27 0.29 0.19 0.17 0.18 0.17 0.12 0.03 0.01 0.01 0.00 0.00 0.00 0.00 0.00 0.00 0.00 0.01 0.01 0.02 0.04 0.07 0.12 0.17 0.22 0.30 0.37 0.47
0.01 0.01 0.02 0.02 0.01 0.01 0.01 0.02 0.02 0.01 0.01 0.02 0.03 0.07 0.14 0.21 0.16 0.12 0.13 0.11 0.09 0.04 0.01 0.00 0.00 0.00 0.00 0.00 0.00 0.00 0.00 0.00 0.00 0.00 0.01 0.02 0.04 0.07 0.12 0.17 0.23 0.30 0.39
0.01 0.01 0.02 0.02 0.02 0.03 0.03 0.03 0.03 0.03 0.02 0.00 0.00 0.01 0.06 0.10 0.09 0.07 0.08 0.06 0.02 0.01 0.01 0.01 0.01 0.01 0.00 0.00 0.00 0.00 0.00 0.00 0.00 0.00 0.00 0.01 0.02 0.04 0.08 0.12 0.17 0.25 0.32
0.01 0.02 0.04 0.03 0.03 0.03 0.03 0.03 0.03 0.03 0.02 0.01 0.00 0.00 0.01 0.02 0.02 0.02 0.02 0.01 0.01 0.01 0.01 0.01 0.01 0.01 0.01 0.01 0.00 0.00 0.00 0.00 0.00 0.00 0.00 0.00 0.01 0.02 0.05 0.08 0.12 0.18 0.23
0.00 0.01 0.03 0.03 0.03 0.03 0.03 0.03 0.03 0.03 0.03 0.02 0.02 0.02 0.05 0.04 0.01 0.01 0.01 0.01 0.02 0.02 0.02 0.02 0.02 0.02 0.01 0.01 0.01 0.00 0.00 0.00 0.00 0.00 0.00 0.00 0.00 0.01 0.03 0.05 0.08 0.12 0.18
0.01 0.01 0.02 0.02 0.02 0.03 0.04 0.04 0.04 0.04 0.04 0.03 0.02 0.03 0.13 0.09 0.02 0.01 0.01 0.02 0.04 0.04 0.04 0.03 0.03 0.02 0.02 0.02 0.01 0.01 0.00 0.00 0.00 0.00 0.00 0.00 0.00 0.00 0.02 0.03 0.05 0.08 0.12
0.02 0.03 0.03 0.04 0.04 0.04 0.05 0.04 0.04 0.05 0.04 0.03 0.02 0.01 0.04 0.02 0.02 0.02 0.02 0.03 0.04 0.05 0.06 0.06 0.04 0.04 0.04 0.03 0.03 0.02 0.01 0.00 0.00 0.00 0.00 0.00 0.00 0.00 0.01 0.02 0.03 0.05 0.08
0.05 0.05 0.03 0.02 0.02 0.02 0.02 0.02 0.03 0.04 0.04 0.03 0.03 0.02 0.02 0.02 0.03 0.03 0.04 0.04 0.05 0.05 0.06 0.06 0.06 0.05 0.05 0.05 0.04 0.03 0.01 0.01 0.00 0.00 0.00 0.00 0.00 0.00 0.00 0.01 0.02 0.04 0.07
0.05 0.03 0.02 0.02 0.01 0.02 0.02 0.03 0.03 0.05 0.05 0.04 0.04 0.04 0.03 0.03 0.03 0.03 0.04 0.04 0.05 0.05 0.06 0.09 0.08 0.07 0.07 0.07 0.06 0.04 0.02 0.01 0.01 0.01 0.01 0.01 0.01 0.01 0.01 0.02 0.02 0.03 0.05
0.01 0.01 0.02 0.02 0.03 0.03 0.03 0.03 0.04 0.05 0.06 0.06 0.06 0.05 0.05 0.04 0.04 0.04 0.04 0.05 0.06 0.06 0.06 0.08 0.10 0.10 0.09 0.09 0.09 0.07 0.04 0.04 0.05 0.10 0.16 0.19 0.15 0.10 0.08 0.06 0.05 0.04 0.05
0.01 0.02 0.03 0.04 0.04 0.04 0.06 0.07 0.07 0.08 0.09 0.08 0.07 0.07 0.07 0.06 0.06 0.05 0.06 0.08 0.10 0.09 0.08 0.09 0.10 0.12 0.12 0.10 0.09 0.09 0.09 0.11 0.19 0.31 0.39 0.35 0.23 0.13 0.08 0.07 0.06 0.05 0.06

GEFSGL_prec_meanprecacc_054.txt.gz
Total_Precipitation_Accumulation
0.00 0.00 0.00 0.00 0.00 0.01 0.02 0.02 0.03 0.03 0.03 0.05 0.07 0.09 0.13 0.18 0.21 0.25 0.25 0.27 0.28 0.27 0.28 0.30 0.32 0.36 0.41 0.41 0.40 0.37 0.33 0.34 0.29 0.09 0.05 0.07 0.13 0.18 0.19 0.18 0.16 0.15 0.17
0.00 0.00 0.00 0.00 0.01 0.02 0.04 0.06 0.06 0.06 0.07 0.09 0.12 0.15 0.20 0.23 0.26 0.32 0.36 0.37 0.41 0.40 0.36 0.36 0.37 0.39 0.43 0.46 0.48 0.46 0.40 0.34 0.32 0.19 0.07 0.07 0.12 0.19 0.23 0.25 0.23 0.19 0.16
0.00 0.00 0.00 0.00 0.01 0.03 0.06 0.10 0.15 0.19 0.21 0.23 0.26 0.31 0.37 0.40 0.42 0.45 0.49 0.56 0.61 0.60 0.58 0.56 0.51 0.49 0.51 0.50 0.51 0.50 0.44 0.36 0.31 0.25 0.14 0.11 0.15 0.21 0.27 0.30 0.31 0.28 0.23
0.00 0.00 0.00 0.01 0.04 0.06 0.09 0.15 0.24 0.34 0.41 0.46 0.50 0.53 0.58 0.66 0.76 0.81 0.79 0.78 0.75 0.74 0.73 0.73 0.73 0.71 0.70 0.67 0.63 0.55 0.48 0.43 0.36 0.29 0.23 0.19 0.21 0.24 0.32 0.36 0.38 0.36 0.33
0.01 0.01 0.02 0.05 0.10 0.17 0.20 0.23 0.31 0.39 0.47 0.51 0.52 0.53 0.58 0.79 1.14 1.25 1.07 0.79 0.66 0.65 0.65 0.68 0.76 0.86 0.88 0.87 0.86 0.70 0.53 0.49 0.46 0.40 0.32 0.27 0.26 0.30 0.37 0.42 0.49 0.47 0.44
0.02 0.03 0.06 0.11 0.18 0.25 0.29 0.32 0.39 0.44 0.47 0.46 0.46 0.46 0.48 0.66 1.05 1.18 0.86 0.52 0.43 0.48 0.54 0.54 0.57 0.68 0.74 0.75 0.81 0.77 0.71 0.69 0.67 0.58 0.50 0.44 0.38 0.38 0.42 0.51 0.57 0.63 0.59
0.04 0.06 0.10 0.13 0.17 0.20 0.23 0.27 0.32 0.30 0.26 0.28 0.33 0.32 0.32 0.43 0.78 0.91 0.57 0.25 0.20 0.26 0.35 0.39 0.40 0.48 0.58 0.59 0.56 0.51 0.56 0.67 0.79 0.79 0.74 0.67 0.56 0.49 0.49 0.51 0.57 0.65 0.67
0.04 0.07 0.10 0.12 0.16 0.14 0.13 0.16 0.19 0.16 0.15 0.18 0.19 0.15 0.13 0.20 0.53 0.72 0.44 0.13 0.11 0.17 0.25 0.30 0.30 0.35 0.48 0.53 0.45 0.41 0.44 0.56 0.75 0.83 0.90 0.83 0.70 0.62 0.62 0.66 0.70 0.70 0.78
0.04 0.05 0.07 0.10 0.14 0.11 0.09 0.10 0.12 0.12 0.11 0.10 0.09 0.06 0.04 0.08 0.36 0.66 0.46 0.12 0.10 0.12 0.18 0.27 0.25 0.21 0.34 0.32 0.29 0.35 0.35 0.43 0.53 0.66 0.69 0.67 0.64 0.68 0.75 0.77 0.85 0.91 1.03
0.02 0.03 0.03 0.04 0.06 0.04 0.03 0.02 0.03 0.04 0.05 0.04 0.02 0.01 0.01 0.02 0.19 0.59 0.60 0.19 0.11 0.09 0.11 0.18 0.26 0.22 0.23 0.20 0.19 0.25 0.32 0.36 0.33 0.34 0.35 0.38 0.42 0.50 0.65 0.80 0.94 1.03 1.12
0.00 0.00 0.00 0.00 0.00 0.00 0.00 0.00 0.01 0.01 0.01 0.01 0.01 0.00 0.00 0.01 0.05 0.36 0.68 0.41 0.17 0.09 0.09 0.16 0.20 0.17 0.14 0.13 0.12 0.19 0.32 0.25 0.20 0.23 0.25 0.28 0.35 0.44 0.57 0.72 0.88 1.01 1.10
0.00 0.00 0.00 0.00 0.00 0.00 0.00 0.00 0.00 0.01 0.01 0.01 0.01 0.01 0.01 0.01 0.04 0.21 0.43 0.49 0.30 0.11 0.12 0.11 0.12 0.09 0.06 0.05 0.06 0.10 0.09 0.08 0.09 0.12 0.16 0.22 0.31 0.43 0.55 0.65 0.77 0.93 1.07
0.00 0.00 0.00 0.00 0.00 0.00 0.01 0.01 0.01 0.01 0.03 0.05 0.04 0.03 0.02 0.02 0.06 0.17 0.19 0.19 0.22 0.16 0.22 0.20 0.07 0.02 0.01 0.01 0.02 0.02 0.02 0.04 0.06 0.10 0.14 0.21 0.29 0.40 0.44 0.49 0.58 0.71 0.84
0.00 0.00 0.00 0.00 0.00 0.00 0.00 0.01 0.02 0.04 0.15 0.18 0.11 0.07 0.04 0.05 0.15 0.31 0.19 0.09 0.09 0.10 0.13 0.12 0.03 0.00 0.00 0.00 0.00 0.01 0.01 0.03 0.05 0.09 0.13 0.16 0.19 0.24 0.31 0.40 0.48 0.58 0.70
0.00 0.00 0.00 0.00 0.00 0.01 0.00 0.01 0.03 0.06 0.22 0.31 0.20 0.18 0.16 0.20 0.33 0.39 0.27 0.22 0.20 0.16 0.07 0.03 0.01 0.00 0.00 0.00 0.00 0.00 0.01 0.01 0.02 0.04 0.07 0.10 0.13 0.19 0.25 0.33 0.42 0.50 0.63
0.00 0.00 0.01 0.01 0.01 0.01 0.01 0.01 0.01 0.03 0.09 0.10 0.11 0.17 0.18 0.28 0.30 0.21 0.19 0.19 0.18 0.13 0.03 0.01 0.01 0.00 0.00 0.00 0.00 0.00 0.00 0.01 0.02 0.03 0.04 0.07 0.11 0.16 0.21 0.26 0.34 0.43 0.54
0.01 0.01 0.02 0.02 0.01 0.01 0.01 0.02 0.02 0.01 0.01 0.02 0.03 0.07 0.14 0.21 0.17 0.13 0.14 0.11 0.09 0.04 0.01 0.01 0.01 0.01 0.01 0.01 0.01 0.00 0.00 0.00 0.01 0.01 0.03 0.04 0.07 0.11 0.15 0.20 0.26 0.34 0.45
0.01 0.01 0.02 0.02 0.02 0.03 0.03 0.03 0.03 0.03 0.02 0.00 0.00 0.01 0.06 0.11 0.09 0.07 0.08 0.06 0.02 0.01 0.01 0.01 0.01 0.01 0.01 0.01 0.01 0.01 0.00 0.00 0.00 0.01 0.01 0.02 0.04 0.07 0.11 0.15 0.21 0.29 0.37
0.01 0.02 0.04 0.03 0.03 0.03 0.03 0.03 0.03 0.03 0.02 0.01 0.00 0.00 0.01 0.02 0.02 0.02 0.02 0.01 0.01 0.01 0.01 0.01 0.02 0.02 0.02 0.02 0.01 0.01 0.01 0.00 0.00 0.00 0.01 0.01 0.02 0.04 0.07 0.10 0.14 0.21 0.27
0.01 0.01 0.03 0.03 0.03 0.03 0.03 0.03 0.03 0.03 0.03 0.02 0.02 0.02 0.05 0.04 0.01 0.01 0.01 0.01 0.02 0.02 0.02 0.02 0.02 0.02 0.02 0.02 0.02 0.02 0.01 0.01 0.00 0.00 0.00 0.00 0.01 0.02 0.05 0.07 0.10 0.14 0.21
0.01 0.01 0.02 0.02 0.02 0.03 0.04 0.04 0.04 0.04 0.04 0.03 0.02 0.03 0.13 0.09 0.02 0.01 0.01 0.02 0.04 0.04 0.04 0.03 0.03 0.03 0.03 0.03 0.03 0.02 0.02 0.01 0.01 0.00 0.00 0.00 0.00 0.01 0.02 0.04 0.07 0.10 0.14
0.02 0.03 0.03 0.04 0.04 0.04 0.05 0.04 0.04 0.05 0.04 0.03 0.02 0.01 0.04 0.02 0.02 0.02 0.02 0.03 0.04 0.05 0.06 0.06 0.05 0.05 0.05 0.06 0.05 0.04 0.03 0.02 0.01 0.00 0.00 0.00 0.00 0.01 0.01 0.02 0.04 0.06 0.09
0.05 0.05 0.03 0.02 0.02 0.02 0.02 0.02 0.03 0.04 0.04 0.03 0.03 0.02 0.02 0.02 0.03 0.03 0.04 0.04 0.05 0.05 0.06 0.07 0.07 0.06 0.06 0.07 0.06 0.06 0.05 0.03 0.01 0.01 0.01 0.00 0.01 0.01 0.01 0.02 0.03 0.05 0.08
0.05 0.03 0.02 0.02 0.01 0.02 0.02 0.03 0.03 0.05 0.05 0.04 0.04 0.04 0.03 0.03 0.03 0.03 0.04 0.04 0.05 0.05 0.06 0.09 0.09 0.08 0.09 0.10 0.08 0.06 0.05 0.04 0.02 0.02 0.01 0.01 0.02 0.01 0.02 0.02 0.03 0.04 0.07
0.01 0.01 0.02 0.02 0.03 0.03 0.03 0.03 0.04 0.05 0.06 0.06 0.06 0.05 0.05 0.04 0.04 0.04 0.04 0.05 0.06 0.06 0.06 0.08 0.10 0.11 0.11 0.11 0.11 0.10 0.08 0.07 0.08 0.11 0.17 0.19 0.15 0.11 0.08 0.07 0.05 0.05 0.06
0.01 0.02 0.03 0.04 0.04 0.04 0.06 0.07 0.07 0.08 0.09 0.08 0.07 0.07 0.07 0.06 0.06 0.05 0.06 0.08 0.10 0.10 0.09 0.09 0.10 0.13 0.13 0.11 0.11 0.11 0.11 0.13 0.21 0.32 0.39 0.36 0.23 0.13 0.09 0.07 0.06 0.06 0.07

GEFSGL_prec_meanprecacc_060.txt.gz
Total_Precipitation_Accumulation
0.00 0.00 0.00 0.00 0.00 0.01 0.02 0.02 0.03 0.03 0.03 0.05 0.07 0.09 0.13 0.18 0.21 0.25 0.25 0.27 0.28 0.27 0.28 0.30 0.32 0.36 0.42 0.41 0.40 0.39 0.36 0.38 0.35 0.11 0.05 0.07 0.13 0.18 0.19 0.18 0.16 0.15 0.17
0.00 0.00 0.00 0.00 0.01 0.02 0.04 0.06 0.06 0.06 0.07 0.09 0.12 0.15 0.20 0.23 0.26 0.32 0.36 0.37 0.41 0.41 0.37 0.36 0.38 0.40 0.44 0.47 0.49 0.47 0.41 0.36 0.37 0.22 0.08 0.07 0.12 0.19 0.23 0.25 0.23 0.19 0.16
0.00 0.00 0.00 0.00 0.01 0.03 0.06 0.10 0.15 0.19 0.21 0.23 0.26 0.31 0.37 0.40 0.42 0.45 0.49 0.57 0.63 0.61 0.59 0.58 0.53 0.51 0.53 0.51 0.52 0.52 0.46 0.38 0.33 0.26 0.15 0.11 0.15 0.21 0.27 0.30 0.31 0.28 0.23
0.00 0.00 0.00 0.01 0.04 0.06 0.09 0.15 0.24 0.34 0.41 0.46 0.50 0.53 0.58 0.66 0.76 0.81 0.80 0.80 0.79 0.77 0.75 0.75 0.74 0.73 0.72 0.68 0.65 0.58 0.52 0.46 0.37 0.31 0.23 0.19 0.21 0.24 0.33 0.36 0.38 0.36 0.33
0.01 0.01 0.02 0.05 0.10 0.17 0.20 0.23 0.31 0.39 0.47 0.51 0.52 0.53 0.58 0.79 1.14 1.25 1.09 0.88 0.74 0.69 0.68 0.70 0.77 0.88 0.91 0.91 0.92 0.76 0.59 0.55 0.49 0.43 0.34 0.28 0.26 0.30 0.37 0.42 0.50 0.47 0.44
0.02 0.03 0.06 0.11 0.18 0.25 0.29 0.32 0.39 0.44 0.47 0.46 0.46 0.46 0.48 0.66 1.05 1.19 0.90 0.62 0.49 0.51 0.57 0.56 0.58 0.69 0.75 0.77 0.85 0.82 0.77 0.75 0.72 0.62 0.52 0.45 0.39 0.38 0.42 0.51 0.58 0.64 0.60
0.04 0.06 0.10 0.13 0.17 0.20 0.23 0.27 0.32 0.30 0.26 0.28 0.33 0.32 0.32 0.43 0.78 0.91 0.62 0.32 0.23 0.28 0.37 0.40 0.41 0.49 0.59 0.61 0.60 0.55 0.59 0.68 0.81 0.83 0.77 0.68 0.57 0.50 0.51 0.52 0.59 0.66 0.68
0.04 0.07 0.10 0.12 0.16 0.14 0.13 0.16 0.19 0.16 0.15 0.18 0.19 0.15 0.13 0.20 0.53 0.72 0.49 0.18 0.12 0.18 0.26 0.31 0.31 0.35 0.48 0.60 0.58 0.47 0.45 0.57 0.77 0.86 0.93 0.86 0.74 0.67 0.68 0.71 0.73 0.72 0.79
0.04 0.05 0.07 0.10 0.14 0.11 0.09 0.10 0.12 0.12 0.11 0.10 0.09 0.06 0.04 0.08 0.36 0.67 0.51 0.16 0.11 0.13 0.19 0.27 0.25 0.22 0.37 0.42 0.37 0.37 0.36 0.44 0.54 0.68 0.71 0.69 0.67 0.71 0.80 0.84 0.88 0.92 1.04
0.02 0.03 0.03 0.04 0.06 0.05 0.03 0.02 0.03 0.04 0.05 0.04 0.02 0.01 0.01 0.02 0.19 0.59 0.63 0.23 0.14 0.10 0.11 0.18 0.26 0.24 0.29 0.27 0.22 0.26 0.34 0.39 0.34 0.34 0.36 0.38 0.43 0.51 0.67 0.84 0.97 1.06 1.14
0.00 0.00 0.00 0.00 0.01 0.01 0.01 0.01 0.01 0.01 0.01 0.01 0.01 0.00 0.00 0.01 0.05 0.36 0.71 0.46 0.23 0.11 0.10 0.16 0.20 0.21 0.19 0.16 0.14 0.21 0.37 0.29 0.21 0.24 0.26 0.29 0.36 0.45 0.59 0.74 0.91 1.05 1.13
0.00 0.00 0.00 0.00 0.00 0.01 0.01 0.01 0.01 0.01 0.01 0.01 0.01 0.01 0.01 0.01 0.04 0.21 0.45 0.52 0.33 0.13 0.12 0.12 0.13 0.12 0.08 0.06 0.06 0.12 0.11 0.08 0.10 0.14 0.18 0.23 0.33 0.45 0.57 0.68 0.80 0.96 1.11
0.00 0.00 0.00 0.01 0.01 0.01 0.01 0.01 0.01 0.01 0.03 0.05 0.04 0.03 0.02 0.02 0.06 0.18 0.20 0.21 0.24 0.17 0.23 0.21 0.08 0.02 0.01 0.01 0.02 0.03 0.03 0.04 0.07 0.11 0.17 0.24 0.33 0.43 0.47 0.53 0.60 0.74 0.88
0.00 0.00 0.01 0.01 0.01 0.01 0.02 0.02 0.02 0.05 0.15 0.18 0.11 0.07 0.04 0.05 0.15 0.31 0.21 0.10 0.10 0.11 0.13 0.13 0.03 0.00 0.00 0.00 0.00 0.01 0.01 0.04 0.07 0.11 0.16 0.19 0.22 0.28 0.35 0.45 0.53 0.63 0.75
0.00 0.01 0.01 0.01 0.02 0.02 0.02 0.02 0.03 0.06 0.23 0.31 0.20 0.18 0.16 0.20 0.33 0.40 0.28 0.23 0.21 0.17 0.08 0.03 0.01 0.00 0.00 0.00 0.00 0.00 0.01 0.02 0.03 0.05 0.09 0.12 0.16 0.22 0.30 0.39 0.49 0.57 0.70
0.01 0.01 0.02 0.03 0.03 0.02 0.02 0.02 0.02 0.04 0.09 0.10 0.11 0.17 0.18 0.28 0.30 0.21 0.19 0.20 0.19 0.14 0.03 0.01 0.01 0.01 0.01 0.01 0.01 0.01 0.01 0.01 0.02 0.04 0.06 0.09 0.14 0.20 0.25 0.31 0.40 0.50 0.63
0.01 0.02 0.04 0.03 0.03 0.03 0.03 0.04 0.03 0.01 0.02 0.02 0.03 0.07 0.14 0.21 0.17 0.13 0.14 0.11 0.09 0.04 0.01 0.01 0.01 0.01 0.01 0.01 0.02 0.02 0.01 0.01 0.01 0.02 0.04 0.06 0.09 0.14 0.19 0.25 0.32 0.41 0.53
0.01 0.02 0.04 0.04 0.05 0.05 0.05 0.05 0.05 0.04 0.02 0.01 0.00 0.01 0.06 0.11 0.09 0.07 0.09 0.06 0.02 0.01 0.01 0.01 0.02 0.02 0.02 0.02 0.03 0.02 0.02 0.01 0.01 0.02 0.02 0.03 0.06 0.10 0.14 0.19 0.26 0.35 0.44
0.01 0.03 0.05 0.05 0.05 0.05 0.05 0.05 0.04 0.04 0.03 0.02 0.00 0.00 0.01 0.02 0.02 0.02 0.02 0.01 0.01 0.01 0.01 0.02 0.02 0.02 0.03 0.03 0.03 0.03 0.02 0.02 0.01 0.01 0.01 0.02 0.03 0.06 0.10 0.14 0.19 0.26 0.33
0.01 0.02 0.04 0.04 0.04 0.05 0.05 0.05 0.04 0.04 0.03 0.02 0.02 0.02 0.05 0.04 0.01 0.01 0.01 0.01 0.02 0.02 0.02 0.02 0.02 0.03 0.03 0.03 0.03 0.03 0.03 0.02 0.02 0.01 0.01 0.01 0.02 0.03 0.07 0.10 0.13 0.18 0.26
0.02 0.02 0.03 0.04 0.04 0.05 0.06 0.06 0.05 0.05 0.05 0.03 0.02 0.03 0.13 0.09 0.02 0.01 0.01 0.02 0.04 0.04 0.04 0.04 0.03 0.03 0.04 0.04 0.04 0.04 0.03 0.03 0.02 0.02 0.01 0.01 0.01 0.02 0.03 0.06 0.09 0.13 0.19
0.03 0.03 0.04 0.05 0.06 0.06 0.07 0.06 0.06 0.05 0.04 0.04 0.02 0.01 0.04 0.02 0.02 0.02 0.02 0.03 0.04 0.05 0.06 0.06 0.05 0.05 0.07 0.08 0.08 0.06 0.05 0.04 0.02 0.02 0.01 0.01 0.01 0.01 0.02 0.03 0.06 0.09 0.13
0.06 0.06 0.05 0.04 0.04 0.05 0.04 0.03 0.04 0.05 0.04 0.03 0.03 0.02 0.02 0.02 0.03 0.03 0.04 0.04 0.05 0.05 0.06 0.07 0.07 0.06 0.07 0.08 0.08 0.09 0.08 0.06 0.04 0.02 0.02 0.01 0.01 0.01 0.01 0.02 0.04 0.07 0.11
0.05 0.04 0.03 0.04 0.04 0.04 0.04 0.04 0.05 0.05 0.05 0.05 0.04 0.04 0.03 0.03 0.03 0.03 0.04 0.04 0.05 0.05 0.07 0.09 0.09 0.09 0.09 0.11 0.10 0.08 0.08 0.07 0.05 0.04 0.02 0.02 0.02 0.02 0.02 0.03 0.04 0.05 0.09
0.02 0.02 0.03 0.05 0.05 0.06 0.06 0.05 0.05 0.06 0.07 0.06 0.06 0.05 0.05 0.04 0.04 0.04 0.04 0.05 0.06 0.06 0.06 0.08 0.10 0.11 0.11 0.12 0.12 0.11 0.10 0.09 0.10 0.13 0.18 0.19 0.16 0.11 0.08 0.07 0.06 0.05 0.07
0.02 0.03 0.05 0.06 0.07 0.07 0.09 0.09 0.08 0.08 0.09 0.08 0.07 0.07 0.07 0.06 0.06 0.05 0.06 0.08 0.10 0.10 0.09 0.09 0.10 0.13 0.13 0.12 0.12 0.13 0.13 0.15 0.23 0.33 0.40 0.36 0.24 0.14 0.09 0.08 0.06 0.06 0.08

GEFSGL_prec_meanprecacc_066.txt.gz
Total_Precipitation_Accumulation
0.00 0.00 0.00 0.00 0.00 0.01 0.02 0.02 0.03 0.03 0.03 0.05 0.07 0.09 0.13 0.18 0.21 0.25 0.25 0.27 0.28 0.27 0.28 0.30 0.32 0.37 0.43 0.42 0.42 0.41 0.38 0.41 0.39 0.12 0.05 0.07 0.13 0.18 0.19 0.18 0.16 0.15 0.18
0.00 0.00 0.00 0.00 0.01 0.02 0.04 0.06 0.06 0.06 0.07 0.09 0.12 0.16 0.20 0.23 0.26 0.32 0.36 0.37 0.41 0.41 0.37 0.36 0.38 0.40 0.45 0.47 0.50 0.48 0.42 0.38 0.41 0.25 0.08 0.07 0.12 0.19 0.23 0.25 0.23 0.19 0.16
0.00 0.00 0.00 0.00 0.01 0.03 0.06 0.10 0.15 0.19 0.21 0.23 0.26 0.31 0.37 0.41 0.42 0.45 0.49 0.57 0.63 0.62 0.59 0.58 0.53 0.51 0.54 0.52 0.53 0.53 0.47 0.40 0.36 0.30 0.16 0.11 0.15 0.21 0.28 0.30 0.31 0.28 0.23
0.00 0.00 0.00 0.01 0.04 0.06 0.09 0.15 0.24 0.34 0.41 0.46 0.50 0.53 0.59 0.66 0.76 0.81 0.80 0.80 0.79 0.77 0.75 0.76 0.75 0.74 0.73 0.70 0.67 0.60 0.55 0.50 0.42 0.35 0.26 0.20 0.22 0.25 0.33 0.37 0.38 0.36 0.33
0.01 0.01 0.02 0.05 0.10 0.17 0.20 0.23 0.31 0.40 0.48 0.52 0.53 0.54 0.58 0.80 1.14 1.25 1.09 0.88 0.75 0.71 0.69 0.71 0.78 0.88 0.93 0.94 0.97 0.82 0.67 0.63 0.57 0.49 0.38 0.30 0.27 0.31 0.38 0.42 0.50 0.48 0.44
0.02 0.03 0.06 0.11 0.18 0.25 0.29 0.32 0.39 0.45 0.47 0.47 0.47 0.47 0.48 0.66 1.06 1.19 0.90 0.62 0.50 0.53 0.58 0.56 0.58 0.69 0.75 0.78 0.87 0.85 0.83 0.83 0.81 0.69 0.57 0.48 0.40 0.39 0.43 0.52 0.60 0.65 0.61
0.04 0.06 0.10 0.13 0.17 0.20 0.23 0.28 0.33 0.31 0.27 0.29 0.34 0.33 0.32 0.43 0.79 0.92 0.63 0.33 0.23 0.29 0.37 0.40 0.41 0.49 0.59 0.61 0.62 0.58 0.61 0.70 0.83 0.86 0.81 0.69 0.58 0.50 0.52 0.54 0.60 0.68 0.69
0.04 0.07 0.10 0.12 0.16 0.14 0.13 0.17 0.20 0.17 0.16 0.19 0.20 0.16 0.14 0.21 0.54 0.72 0.49 0.18 0.13 0.18 0.26 0.31 0.31 0.35 0.48 0.63 0.68 0.54 0.47 0.57 0.77 0.88 0.97 0.90 0.77 0.71 0.75 0.77 0.77 0.75 0.79
0.04 0.05 0.07 0.10 0.14 0.12 0.10 0.11 0.13 0.13 0.12 0.11 0.10 0.07 0.04 0.08 0.36 0.67 0.51 0.16 0.11 0.13 0.19 0.27 0.25 0.22 0.38 0.48 0.47 0.41 0.36 0.44 0.55 0.69 0.74 0.73 0.71 0.76 0.86 0.92 0.93 0.95 1.05
0.02 0.03 0.03 0.04 0.06 0.05 0.04 0.03 0.04 0.05 0.06 0.05 0.03 0.02 0.02 0.03 0.19 0.60 0.63 0.23 0.14 0.10 0.12 0.18 0.26 0.24 0.32 0.32 0.26 0.28 0.35 0.41 0.36 0.35 0.36 0.39 0.44 0.51 0.69 0.87 1.01 1.09 1.16
0.00 0.00 0.00 0.00 0.01 0.01 0.01 0.02 0.02 0.02 0.03 0.02 0.02 0.01 0.01 0.02 0.06 0.36 0.71 0.46 0.24 0.12 0.10 0.16 0.20 0.22 0.21 0.18 0.16 0.22 0.40 0.33 0.23 0.24 0.27 0.30 0.36 0.46 0.59 0.75 0.93 1.09 1.16
0.00 0.00 0.00 0.00 0.01 0.01 0.02 0.02 0.02 0.02 0.03 0.03 0.02 0.02 0.01 0.01 0.05 0.21 0.45 0.53 0.34 0.14 0.13 0.12 0.14 0.14 0.10 0.07 0.07 0.13 0.13 0.10 0.11 0.14 0.18 0.24 0.34 0.46 0.58 0.69 0.82 0.98 1.14
0.00 0.00 0.00 0.01 0.01 0.02 0.02 0.03 0.03 0.03 0.05 0.06 0.05 0.04 0.03 0.03 0.06 0.18 0.20 0.21 0.24 0.18 0.23 0.22 0.08 0.03 0.02 0.01 0.03 0.04 0.03 0.04 0.08 0.12 0.17 0.25 0.34 0.45 0.49 0.55 0.62 0.76 0.89
0.00 0.00 0.01 0.01 0.02 0.02 0.03 0.03 0.04 0.06 0.17 0.20 0.13 0.08 0.05 0.05 0.16 0.31 0.21 0.10 0.10 0.12 0.14 0.13 0.03 0.00 0.00 0.00 0.00 0.01 0.01 0.04 0.08 0.12 0.17 0.20 0.23 0.29 0.37 0.49 0.57 0.66 0.78
0.00 0.01 0.01 0.02 0.02 0.03 0.03 0.03 0.05 0.08 0.25 0.33 0.21 0.19 0.17 0.20 0.33 0.40 0.28 0.23 0.21 0.18 0.09 0.03 0.01 0.00 0.00 0.00 0.00 0.00 0.01 0.02 0.03 0.06 0.10 0.13 0.17 0.24 0.32 0.42 0.53 0.61 0.74
0.01 0.01 0.02 0.03 0.03 0.03 0.03 0.03 0.04 0.06 0.11 0.12 0.13 0.18 0.19 0.29 0.30 0.21 0.19 0.20 0.19 0.14 0.04 0.01 0.01 0.01 0.01 0.01 0.01 0.01 0.01 0.02 0.03 0.05 0.07 0.10 0.15 0.22 0.28 0.34 0.44 0.56 0.69
0.01 0.02 0.04 0.04 0.04 0.04 0.04 0.05 0.05 0.04 0.04 0.04 0.05 0.08 0.15 0.22 0.17 0.13 0.14 0.11 0.09 0.05 0.01 0.01 0.01 0.01 0.01 0.02 0.02 0.02 0.02 0.01 0.02 0.03 0.05 0.07 0.11 0.16 0.22 0.28 0.36 0.47 0.61
0.01 0.02 0.04 0.05 0.05 0.06 0.06 0.07 0.07 0.07 0.05 0.03 0.02 0.03 0.07 0.11 0.09 0.07 0.09 0.06 0.02 0.01 0.01 0.01 0.02 0.02 0.02 0.03 0.03 0.03 0.03 0.02 0.02 0.02 0.03 0.04 0.07 0.12 0.16 0.22 0.30 0.41 0.52
0.01 0.03 0.05 0.05 0.05 0.06 0.07 0.07 0.07 0.06 0.05 0.04 0.02 0.02 0.02 0.03 0.02 0.02 0.02 0.01 0.01 0.01 0.01 0.02 0.02 0.03 0.03 0.03 0.04 0.04 0.03 0.03 0.02 0.02 0.02 0.03 0.04 0.08 0.12 0.17 0.23 0.31 0.40
0.01 0.03 0.05 0.05 0.05 0.06 0.07 0.07 0.07 0.07 0.06 0.04 0.03 0.03 0.06 0.05 0.02 0.01 0.01 0.01 0.02 0.02 0.02 0.02 0.02 0.03 0.03 0.04 0.04 0.04 0.04 0.03 0.02 0.02 0.02 0.02 0.02 0.05 0.09 0.12 0.17 0.24 0.32
0.02 0.03 0.04 0.04 0.05 0.07 0.08 0.08 0.08 0.07 0.07 0.05 0.03 0.04 0.14 0.09 0.03 0.01 0.01 0.02 0.04 0.04 0.04 0.04 0.03 0.04 0.04 0.04 0.05 0.04 0.04 0.04 0.03 0.03 0.02 0.02 0.02 0.02 0.05 0.08 0.12 0.18 0.25
0.04 0.04 0.05 0.07 0.07 0.08 0.09 0.09 0.08 0.08 0.07 0.05 0.03 0.02 0.05 0.03 0.02 0.02 0.02 0.03 0.04 0.05 0.06 0.06 0.05 0.05 0.07 0.09 0.09 0.08 0.06 0.05 0.03 0.03 0.02 0.02 0.01 0.02 0.03 0.05 0.08 0.12 0.18
0.07 0.07 0.06 0.06 0.07 0.08 0.08 0.07 0.07 0.07 0.07 0.05 0.04 0.04 0.03 0.02 0.03 0.03 0.04 0.04 0.05 0.05 0.06 0.07 0.07 0.06 0.07 0.09 0.09 0.11 0.10 0.07 0.05 0.04 0.03 0.02 0.02 0.01 0.02 0.03 0.06 0.10 0.16
0.07 0.06 0.06 0.07 0.08 0.08 0.08 0.08 0.08 0.08 0.08 0.07 0.05 0.05 0.04 0.04 0.04 0.03 0.04 0.04 0.05 0.05 0.07 0.09 0.09 0.09 0.10 0.12 0.11 0.09 0.10 0.09 0.07 0.05 0.04 0.03 0.03 0.02 0.03 0.04 0.05 0.08 0.13
0.04 0.05 0.07 0.08 0.10 0.10 0.10 0.10 0.09 0.09 0.09 0.08 0.07 0.06 0.05 0.04 0.04 0.04 0.04 0.05 0.06 0.06 0.06 0.08 0.10 0.12 0.12 0.12 0.13 0.13 0.12 0.12 0.13 0.15 0.19 0.20 0.16 0.11 0.09 0.08 0.07 0.07 0.10
0.05 0.06 0.09 0.11 0.12 0.12 0.13 0.13 0.12 0.11 0.12 0.10 0.08 0.08 0.07 0.07 0.06 0.05 0.06 0.08 0.10 0.10 0.09 0.09 0.10 0.13 0.14 0.13 0.13 0.15 0.15 0.17 0.24 0.34 0.41 0.37 0.24 0.14 0.09 0.08 0.07 0.08 0.10

GEFSGL_prec_meanprecacc_072.txt.gz
Total_Precipitation_Accumulation
0.00 0.00 0.00 0.00 0.00 0.01 0.02 0.02 0.03 0.03 0.03 0.05 0.07 0.10 0.13 0.18 0.22 0.25 0.26 0.27 0.28 0.27 0.28 0.30 0.32 0.37 0.43 0.42 0.42 0.41 0.39 0.44 0.43 0.12 0.05 0.07 0.13 0.18 0.19 0.18 0.16 0.15 0.18
0.00 0.00 0.00 0.00 0.01 0.02 0.04 0.06 0.06 0.06 0.07 0.09 0.12 0.16 0.20 0.23 0.26 0.33 0.36 0.37 0.42 0.41 0.37 0.37 0.38 0.40 0.45 0.47 0.50 0.49 0.43 0.39 0.43 0.27 0.08 0.07 0.12 0.19 0.23 0.25 0.23 0.19 0.16
0.00 0.00 0.00 0.00 0.01 0.03 0.06 0.10 0.15 0.19 0.21 0.23 0.26 0.31 0.38 0.41 0.43 0.46 0.50 0.57 0.63 0.62 0.59 0.58 0.53 0.52 0.54 0.52 0.53 0.53 0.48 0.41 0.38 0.33 0.18 0.12 0.15 0.21 0.28 0.31 0.32 0.29 0.23
0.00 0.00 0.00 0.01 0.04 0.06 0.09 0.15 0.24 0.34 0.41 0.46 0.50 0.54 0.59 0.67 0.78 0.82 0.81 0.81 0.80 0.77 0.76 0.76 0.75 0.74 0.73 0.70 0.68 0.61 0.56 0.53 0.45 0.39 0.28 0.21 0.22 0.25 0.34 0.38 0.39 0.37 0.33
0.01 0.01 0.02 0.05 0.10 0.17 0.20 0.23 0.31 0.40 0.48 0.52 0.53 0.55 0.59 0.81 1.15 1.27 1.11 0.89 0.75 0.71 0.69 0.71 0.78 0.89 0.93 0.95 0.99 0.85 0.72 0.70 0.62 0.54 0.42 0.33 0.29 0.32 0.40 0.44 0.51 0.48 0.44
0.02 0.03 0.06 0.11 0.18 0.25 0.29 0.32 0.39 0.45 0.48 0.47 0.48 0.48 0.50 0.67 1.07 1.20 0.92 0.63 0.51 0.53 0.58 0.56 0.58 0.70 0.76 0.79 0.89 0.88 0.86 0.89 0.87 0.75 0.62 0.51 0.41 0.40 0.44 0.54 0.61 0.67 0.62
0.04 0.06 0.10 0.13 0.17 0.20 0.23 0.28 0.33 0.31 0.27 0.29 0.35 0.34 0.34 0.45 0.80 0.93 0.64 0.34 0.24 0.29 0.38 0.41 0.41 0.49 0.59 0.61 0.62 0.59 0.62 0.72 0.87 0.91 0.86 0.71 0.59 0.51 0.54 0.57 0.62 0.71 0.71
0.04 0.07 0.10 0.12 0.16 0.14 0.13 0.17 0.20 0.17 0.16 0.19 0.21 0.17 0.15 0.23 0.55 0.74 0.50 0.20 0.13 0.19 0.27 0.31 0.31 0.35 0.48 0.63 0.69 0.56 0.49 0.58 0.78 0.89 0.98 0.92 0.80 0.75 0.82 0.85 0.83 0.78 0.81
0.04 0.05 0.07 0.10 0.14 0.12 0.10 0.11 0.14 0.14 0.13 0.12 0.10 0.08 0.06 0.09 0.37 0.68 0.53 0.18 0.13 0.13 0.19 0.27 0.25 0.22 0.38 0.49 0.49 0.44 0.38 0.45 0.55 0.70 0.75 0.74 0.73 0.78 0.90 0.98 0.97 0.98 1.06
0.02 0.03 0.03 0.04 0.06 0.05 0.04 0.03 0.04 0.05 0.06 0.05 0.04 0.03 0.03 0.04 0.20 0.61 0.65 0.25 0.16 0.11 0.12 0.18 0.26 0.25 0.33 0.33 0.28 0.31 0.38 0.42 0.37 0.36 0.37 0.39 0.44 0.52 0.69 0.90 1.04 1.12 1.18
0.00 0.00 0.00 0.00 0.01 0.01 0.01 0.02 0.02 0.03 0.03 0.03 0.02 0.02 0.02 0.02 0.07 0.37 0.73 0.48 0.25 0.13 0.11 0.16 0.21 0.22 0.22 0.20 0.18 0.25 0.42 0.35 0.25 0.26 0.27 0.30 0.36 0.46 0.60 0.76 0.96 1.13 1.20
0.00 0.00 0.00 0.00 0.01 0.01 0.02 0.02 0.02 0.02 0.03 0.03 0.03 0.03 0.02 0.02 0.06 0.22 0.47 0.55 0.35 0.15 0.13 0.12 0.14 0.14 0.11 0.08 0.09 0.14 0.15 0.11 0.12 0.15 0.18 0.24 0.34 0.46 0.59 0.70 0.83 1.01 1.17
0.00 0.00 0.00 0.01 0.01 0.02 0.02 0.03 0.03 0.03 0.05 0.07 0.06 0.05 0.04 0.04 0.07 0.19 0.21 0.23 0.26 0.19 0.23 0.22 0.09 0.04 0.03 0.02 0.03 0.05 0.04 0.05 0.08 0.12 0.18 0.25 0.34 0.45 0.50 0.56 0.63 0.78 0.91
0.00 0.00 0.01 0.01 0.02 0.02 0.03 0.03 0.04 0.07 0.17 0.20 0.13 0.09 0.06 0.06 0.17 0.33 0.22 0.11 0.12 0.13 0.14 0.13 0.04 0.01 0.01 0.00 0.01 0.01 0.01 0.04 0.08 0.13 0.18 0.20 0.23 0.30 0.38 0.50 0.58 0.68 0.80
0.00 0.01 0.01 0.02 0.02 0.03 0.03 0.03 0.05 0.08 0.25 0.33 0.22 0.20 0.18 0.21 0.34 0.41 0.30 0.24 0.22 0.18 0.09 0.04 0.01 0.00 0.00 0.00 0.00 0.00 0.01 0.02 0.03 0.06 0.10 0.14 0.18 0.24 0.33 0.42 0.55 0.63 0.77
0.01 0.01 0.02 0.03 0.03 0.03 0.03 0.03 0.04 0.06 0.11 0.13 0.13 0.19 0.20 0.30 0.32 0.23 0.21 0.21 0.19 0.15 0.05 0.02 0.01 0.01 0.01 0.01 0.01 0.01 0.01 0.02 0.03 0.05 0.07 0.11 0.16 0.23 0.29 0.34 0.46 0.58 0.72
0.01 0.02 0.04 0.04 0.04 0.04 0.04 0.05 0.05 0.04 0.04 0.05 0.06 0.10 0.17 0.23 0.19 0.14 0.16 0.13 0.10 0.06 0.02 0.01 0.01 0.01 0.01 0.02 0.02 0.02 0.02 0.01 0.02 0.04 0.05 0.07 0.11 0.17 0.22 0.29 0.37 0.48 0.63
0.01 0.03 0.05 0.05 0.05 0.06 0.07 0.07 0.08 0.07 0.06 0.04 0.04 0.05 0.10 0.14 0.12 0.09 0.10 0.08 0.04 0.03 0.02 0.01 0.02 0.02 0.02 0.03 0.03 0.03 0.03 0.02 0.02 0.03 0.04 0.05 0.08 0.13 0.18 0.23 0.31 0.43 0.54
0.02 0.03 0.06 0.06 0.06 0.07 0.08 0.09 0.08 0.08 0.07 0.05 0.04 0.05 0.06 0.07 0.06 0.05 0.05 0.04 0.03 0.02 0.02 0.02 0.02 0.03 0.03 0.03 0.04 0.04 0.04 0.03 0.03 0.03 0.03 0.03 0.05 0.09 0.13 0.18 0.24 0.33 0.43
0.02 0.03 0.06 0.07 0.07 0.08 0.09 0.10 0.09 0.09 0.08 0.07 0.06 0.06 0.11 0.11 0.08 0.05 0.04 0.03 0.02 0.02 0.02 0.02 0.02 0.03 0.03 0.04 0.04 0.04 0.04 0.03 0.03 0.03 0.03 0.03 0.03 0.06 0.10 0.13 0.18 0.25 0.35
0.03 0.04 0.06 0.07 0.08 0.09 0.11 0.11 0.11 0.10 0.09 0.07 0.06 0.07 0.18 0.15 0.07 0.05 0.04 0.04 0.04 0.05 0.04 0.04 0.03 0.04 0.04 0.05 0.05 0.05 0.05 0.04 0.03 0.03 0.03 0.02 0.02 0.03 0.06 0.10 0.14 0.20 0.28
0.05 0.06 0.07 0.09 0.09 0.11 0.12 0.12 0.12 0.11 0.10 0.09 0.07 0.06 0.10 0.08 0.06 0.05 0.04 0.04 0.05 0.06 0.06 0.07 0.05 0.05 0.07 0.09 0.09 0.08 0.06 0.05 0.04 0.04 0.03 0.03 0.02 0.02 0.04 0.06 0.09 0.15 0.22
0.08 0.09 0.08 0.08 0.09 0.11 0.12 0.10 0.10 0.11 0.10 0.09 0.07 0.07 0.06 0.06 0.06 0.06 0.06 0.06 0.05 0.06 0.06 0.07 0.07 0.06 0.07 0.09 0.10 0.11 0.11 0.08 0.06 0.06 0.05 0.04 0.03 0.02 0.03 0.04 0.07 0.13 0.19
0.09 0.08 0.08 0.09 0.11 0.12 0.11 0.11 0.11 0.12 0.11 0.10 0.08 0.07 0.07 0.06 0.06 0.05 0.06 0.05 0.05 0.05 0.07 0.09 0.09 0.09 0.10 0.12 0.11 0.10 0.10 0.10 0.09 0.08 0.06 0.05 0.04 0.03 0.03 0.05 0.06 0.10 0.16
0.06 0.07 0.09 0.12 0.13 0.13 0.13 0.13 0.13 0.12 0.12 0.11 0.10 0.08 0.07 0.06 0.06 0.05 0.05 0.05 0.06 0.06 0.06 0.08 0.10 0.12 0.12 0.12 0.13 0.13 0.13 0.14 0.16 0.18 0.21 0.21 0.17 0.12 0.09 0.09 0.08 0.09 0.14
0.06 0.09 0.11 0.14 0.15 0.16 0.17 0.17 0.15 0.14 0.15 0.13 0.11 0.10 0.09 0.08 0.07 0.07 0.07 0.08 0.10 0.10 0.09 0.09 0.10 0.13 0.14 0.13 0.14 0.15 0.16 0.19 0.26 0.36 0.42 0.38 0.25 0.15 0.10 0.10 0.09 0.10 0.13